Wetterdaten: Donnerstag, 08.05.2014
Datum Zeit Temp. Aussen +5cm Feuchte Auss Luftdruck Regen Sonnenschein Regendauer UV Solar Windben
08.05.2014 00:00 11,1 C 9,4 C 78 % 1012,2 hPa 0,0 l/m 0 min 0 min 0,0 UV-I 0 W/m 7,7 km/h (2 Bft)
08.05.2014 00:02 11,2 C 9,4 C 78 % 1012,1 hPa 0,0 l/m 0 min 0 min 0,0 UV-I 0 W/m 5,1 km/h (1 Bft)
08.05.2014 00:05 11,2 C 9,4 C 77 % 1012,2 hPa 0,0 l/m 0 min 0 min 0,0 UV-I 0 W/m 12,9 km/h (3 Bft)
08.05.2014 00:06 11,2 C 9,4 C 77 % 1012,2 hPa 0,0 l/m 0 min 0 min 0,0 UV-I 0 W/m 0,0 km/h (0 Bft)
08.05.2014 00:08 11,2 C 9,4 C 78 % 1012,2 hPa 0,0 l/m 0 min 0 min 0,0 UV-I 0 W/m 0,0 km/h (0 Bft)
08.05.2014 00:10 11,2 C 9,4 C 78 % 1012,2 hPa 0,0 l/m 0 min 0 min 0,0 UV-I 0 W/m 10,3 km/h (2 Bft)
08.05.2014 00:12 11,1 C 9,4 C 78 % 1012,2 hPa 0,0 l/m 0 min 0 min 0,0 UV-I 0 W/m 10,3 km/h (2 Bft)
08.05.2014 00:14 11,1 C 9,4 C 78 % 1012,2 hPa 0,0 l/m 0 min 0 min 0,0 UV-I 0 W/m 2,6 km/h (1 Bft)
08.05.2014 00:16 11,1 C 9,4 C 78 % 1012,2 hPa 0,0 l/m 0 min 0 min 0,0 UV-I 0 W/m 7,7 km/h (2 Bft)
08.05.2014 00:18 11,1 C 9,4 C 78 % 1012,2 hPa 0,0 l/m 0 min 0 min 0,0 UV-I 0 W/m 10,3 km/h (2 Bft)
08.05.2014 00:20 11,1 C 9,4 C 78 % 1012,2 hPa 0,0 l/m 0 min 0 min 0,0 UV-I 0 W/m 7,7 km/h (2 Bft)
08.05.2014 00:22 11,1 C 9,4 C 78 % 1012,2 hPa 0,0 l/m 0 min 0 min 0,0 UV-I 0 W/m 0,0 km/h (0 Bft)
08.05.2014 00:24 11,0 C 9,4 C 78 % 1012,2 hPa 0,0 l/m 0 min 0 min 0,0 UV-I 0 W/m 10,3 km/h (2 Bft)
08.05.2014 00:26 11,0 C 9,4 C 78 % 1012,2 hPa 0,0 l/m 0 min 0 min 0,0 UV-I 0 W/m 7,7 km/h (2 Bft)
08.05.2014 00:28 11,0 C 9,4 C 78 % 1012,2 hPa 0,0 l/m 0 min 0 min 0,0 UV-I 0 W/m 0,0 km/h (0 Bft)
08.05.2014 00:30 11,0 C 9,4 C 78 % 1012,2 hPa 0,0 l/m 0 min 0 min 0,0 UV-I 0 W/m 10,3 km/h (2 Bft)
08.05.2014 00:32 10,9 C 9,4 C 78 % 1012,2 hPa 0,0 l/m 0 min 0 min 0,0 UV-I 0 W/m 7,7 km/h (2 Bft)
08.05.2014 00:34 10,9 C 9,4 C 78 % 1012,2 hPa 0,0 l/m 0 min 0 min 0,0 UV-I 0 W/m 5,1 km/h (1 Bft)
08.05.2014 00:36 10,9 C 9,4 C 78 % 1012,2 hPa 0,0 l/m 0 min 0 min 0,0 UV-I 0 W/m 12,9 km/h (3 Bft)
08.05.2014 00:38 10,9 C 9,4 C 78 % 1012,2 hPa 0,0 l/m 0 min 0 min 0,0 UV-I 0 W/m 7,7 km/h (2 Bft)
08.05.2014 00:40 10,9 C 9,4 C 78 % 1012,2 hPa 0,0 l/m 0 min 0 min 0,0 UV-I 0 W/m 7,7 km/h (2 Bft)
08.05.2014 00:42 10,9 C 9,4 C 78 % 1012,1 hPa 0,0 l/m 0 min 0 min 0,0 UV-I 0 W/m 5,1 km/h (1 Bft)
08.05.2014 00:44 10,9 C 9,4 C 78 % 1012,2 hPa 0,0 l/m 0 min 0 min 0,0 UV-I 0 W/m 7,7 km/h (2 Bft)
08.05.2014 00:46 10,9 C 9,4 C 78 % 1012,2 hPa 0,0 l/m 0 min 0 min 0,0 UV-I 0 W/m 2,6 km/h (1 Bft)
08.05.2014 00:48 10,9 C 9,4 C 79 % 1012,2 hPa 0,0 l/m 0 min 0 min 0,0 UV-I 0 W/m 5,1 km/h (1 Bft)
08.05.2014 00:50 10,8 C 9,4 C 79 % 1012,2 hPa 0,0 l/m 0 min 0 min 0,0 UV-I 0 W/m 2,6 km/h (1 Bft)
08.05.2014 00:52 10,8 C 9,4 C 79 % 1012,2 hPa 0,0 l/m 0 min 0 min 0,0 UV-I 0 W/m 10,3 km/h (2 Bft)
08.05.2014 00:54 10,7 C 8,9 C 79 % 1012,2 hPa 0,0 l/m 0 min 0 min 0,0 UV-I 0 W/m 0,0 km/h (0 Bft)
08.05.2014 00:56 10,7 C 9,4 C 80 % 1012,2 hPa 0,0 l/m 0 min 0 min 0,0 UV-I 0 W/m 7,7 km/h (2 Bft)
08.05.2014 00:58 10,7 C 8,9 C 80 % 1012,3 hPa 0,0 l/m 0 min 0 min 0,0 UV-I 0 W/m 2,6 km/h (1 Bft)
08.05.2014 01:00 10,6 C 8,9 C 80 % 1012,2 hPa 0,0 l/m 0 min 0 min 0,0 UV-I 0 W/m 0,0 km/h (0 Bft)
08.05.2014 01:02 10,6 C 9,4 C 80 % 1012,2 hPa 0,0 l/m 0 min 0 min 0,0 UV-I 0 W/m 10,3 km/h (2 Bft)
08.05.2014 01:06 10,6 C 9,4 C 81 % 1012,2 hPa 0,0 l/m 0 min 0 min 0,0 UV-I 0 W/m 10,3 km/h (2 Bft)
08.05.2014 01:08 10,6 C 9,4 C 81 % 1012,1 hPa 0,0 l/m 0 min 0 min 0,0 UV-I 0 W/m 7,7 km/h (2 Bft)
08.05.2014 01:10 10,6 C 9,4 C 81 % 1012,2 hPa 0,0 l/m 0 min 0 min 0,0 UV-I 0 W/m 15,4 km/h (3 Bft)
08.05.2014 01:12 10,7 C 9,4 C 81 % 1012,1 hPa 0,0 l/m 0 min 0 min 0,0 UV-I 0 W/m 12,9 km/h (3 Bft)
08.05.2014 01:14 10,7 C 9,4 C 81 % 1012,2 hPa 0,0 l/m 0 min 0 min 0,0 UV-I 0 W/m 0,0 km/h (0 Bft)
08.05.2014 01:16 10,8 C 9,4 C 81 % 1012,2 hPa 0,0 l/m 0 min 0 min 0,0 UV-I 0 W/m 7,7 km/h (2 Bft)
08.05.2014 01:18 10,8 C 9,4 C 81 % 1012,2 hPa 0,0 l/m 0 min 0 min 0,0 UV-I 0 W/m 0,0 km/h (0 Bft)
08.05.2014 01:20 10,8 C 9,4 C 81 % 1012,2 hPa 0,0 l/m 0 min 0 min 0,0 UV-I 0 W/m 10,3 km/h (2 Bft)
08.05.2014 01:22 10,8 C 9,4 C 81 % 1012,3 hPa 0,0 l/m 0 min 0 min 0,0 UV-I 0 W/m 0,0 km/h (0 Bft)
08.05.2014 01:24 10,8 C 9,4 C 81 % 1012,1 hPa 0,0 l/m 0 min 0 min 0,0 UV-I 0 W/m 0,0 km/h (0 Bft)
08.05.2014 01:26 10,8 C 9,4 C 81 % 1012,2 hPa 0,0 l/m 0 min 0 min 0,0 UV-I 0 W/m 18,0 km/h (3 Bft)
08.05.2014 01:28 10,9 C 9,4 C 81 % 1012,2 hPa 0,0 l/m 0 min 0 min 0,0 UV-I 0 W/m 5,1 km/h (1 Bft)
08.05.2014 01:30 11,0 C 9,4 C 81 % 1012,2 hPa 0,0 l/m 0 min 0 min 0,0 UV-I 0 W/m 5,1 km/h (1 Bft)
08.05.2014 01:32 11,0 C 9,4 C 81 % 1012,2 hPa 0,0 l/m 0 min 0 min 0,0 UV-I 0 W/m 5,1 km/h (1 Bft)
08.05.2014 01:34 11,1 C 9,4 C 81 % 1012,1 hPa 0,0 l/m 0 min 0 min 0,0 UV-I 0 W/m 0,0 km/h (0 Bft)
08.05.2014 01:36 11,1 C 10,0 C 80 % 1012,2 hPa 0,0 l/m 0 min 0 min 0,0 UV-I 0 W/m 7,7 km/h (2 Bft)
08.05.2014 01:38 11,1 C 10,0 C 80 % 1012,1 hPa 0,0 l/m 0 min 0 min 0,0 UV-I 0 W/m 10,3 km/h (2 Bft)
08.05.2014 01:40 11,2 C 10,0 C 80 % 1012,1 hPa 0,0 l/m 0 min 0 min 0,0 UV-I 0 W/m 5,1 km/h (1 Bft)
08.05.2014 01:42 11,2 C 10,0 C 80 % 1012,1 hPa 0,0 l/m 0 min 0 min 0,0 UV-I 0 W/m 5,1 km/h (1 Bft)
08.05.2014 01:44 11,2 C 10,0 C 80 % 1012,1 hPa 0,0 l/m 0 min 0 min 0,0 UV-I 0 W/m 5,1 km/h (1 Bft)
08.05.2014 01:46 11,2 C 10,0 C 80 % 1012,1 hPa 0,0 l/m 0 min 0 min 0,0 UV-I 0 W/m 7,7 km/h (2 Bft)
08.05.2014 01:48 11,2 C 10,0 C 80 % 1012,1 hPa 0,0 l/m 0 min 0 min 0,0 UV-I 0 W/m 10,3 km/h (2 Bft)
08.05.2014 01:50 11,3 C 10,0 C 80 % 1012,0 hPa 0,0 l/m 0 min 0 min 0,0 UV-I 0 W/m 7,7 km/h (2 Bft)
08.05.2014 01:52 11,3 C 10,0 C 80 % 1012,1 hPa 0,0 l/m 0 min 0 min 0,0 UV-I 0 W/m 15,4 km/h (3 Bft)
08.05.2014 01:54 11,3 C 10,0 C 80 % 1012,1 hPa 0,0 l/m 0 min 0 min 0,0 UV-I 0 W/m 15,4 km/h (3 Bft)
08.05.2014 01:56 11,3 C 10,0 C 80 % 1012,1 hPa 0,0 l/m 0 min 0 min 0,0 UV-I 0 W/m 0,0 km/h (0 Bft)
08.05.2014 01:58 11,3 C 10,0 C 80 % 1012,0 hPa 0,0 l/m 0 min 0 min 0,0 UV-I 0 W/m 2,6 km/h (1 Bft)
08.05.2014 02:00 11,3 C 10,0 C 80 % 1012,0 hPa 0,0 l/m 0 min 0 min 0,0 UV-I 0 W/m 7,7 km/h (2 Bft)
08.05.2014 02:02 11,3 C 10,0 C 80 % 1012,0 hPa 0,0 l/m 0 min 0 min 0,0 UV-I 0 W/m 7,7 km/h (2 Bft)
08.05.2014 02:06 11,3 C 10,0 C 80 % 1011,9 hPa 0,0 l/m 0 min 0 min 0,0 UV-I 0 W/m 20,6 km/h (4 Bft)
08.05.2014 02:08 11,3 C 10,0 C 80 % 1012,0 hPa 0,0 l/m 0 min 0 min 0,0 UV-I 0 W/m 10,3 km/h (2 Bft)
08.05.2014 02:10 11,3 C 10,0 C 80 % 1012,0 hPa 0,0 l/m 0 min 0 min 0,0 UV-I 0 W/m 15,4 km/h (3 Bft)
08.05.2014 02:12 11,3 C 10,0 C 80 % 1012,0 hPa 0,0 l/m 0 min 0 min 0,0 UV-I 0 W/m 15,4 km/h (3 Bft)
08.05.2014 02:14 11,3 C 10,0 C 80 % 1012,0 hPa 0,0 l/m 0 min 0 min 0,0 UV-I 0 W/m 15,4 km/h (3 Bft)
08.05.2014 02:16 11,3 C 10,0 C 81 % 1012,0 hPa 0,0 l/m 0 min 0 min 0,0 UV-I 0 W/m 5,1 km/h (1 Bft)
08.05.2014 02:18 11,3 C 10,0 C 80 % 1012,0 hPa 0,0 l/m 0 min 0 min 0,0 UV-I 0 W/m 12,9 km/h (3 Bft)
08.05.2014 02:20 11,2 C 10,0 C 81 % 1012,0 hPa 0,0 l/m 0 min 0 min 0,0 UV-I 0 W/m 18,0 km/h (3 Bft)
08.05.2014 02:22 11,2 C 10,0 C 81 % 1012,0 hPa 0,0 l/m 0 min 0 min 0,0 UV-I 0 W/m 7,7 km/h (2 Bft)
08.05.2014 02:24 11,2 C 10,0 C 81 % 1011,9 hPa 0,0 l/m 0 min 0 min 0,0 UV-I 0 W/m 10,3 km/h (2 Bft)
08.05.2014 02:26 11,2 C 10,0 C 81 % 1012,0 hPa 0,0 l/m 0 min 0 min 0,0 UV-I 0 W/m 7,7 km/h (2 Bft)
08.05.2014 02:28 11,2 C 10,0 C 81 % 1011,9 hPa 0,0 l/m 0 min 0 min 0,0 UV-I 0 W/m 12,9 km/h (3 Bft)
08.05.2014 02:30 11,2 C 10,0 C 81 % 1012,0 hPa 0,0 l/m 0 min 0 min 0,0 UV-I 0 W/m 15,4 km/h (3 Bft)
08.05.2014 02:32 11,2 C 10,0 C 81 % 1012,0 hPa 0,0 l/m 0 min 0 min 0,0 UV-I 0 W/m 10,3 km/h (2 Bft)
08.05.2014 02:34 11,2 C 10,0 C 81 % 1011,9 hPa 0,0 l/m 0 min 0 min 0,0 UV-I 0 W/m 15,4 km/h (3 Bft)
08.05.2014 02:36 11,2 C 10,0 C 81 % 1011,9 hPa 0,0 l/m 0 min 0 min 0,0 UV-I 0 W/m 12,9 km/h (3 Bft)
08.05.2014 02:38 11,2 C 10,0 C 82 % 1011,9 hPa 0,0 l/m 0 min 0 min 0,0 UV-I 0 W/m 18,0 km/h (3 Bft)
08.05.2014 02:40 11,2 C 10,0 C 82 % 1011,9 hPa 0,0 l/m 0 min 0 min 0,0 UV-I 0 W/m 7,7 km/h (2 Bft)
08.05.2014 02:42 11,2 C 10,0 C 82 % 1011,9 hPa 0,0 l/m 0 min 0 min 0,0 UV-I 0 W/m 15,4 km/h (3 Bft)
08.05.2014 02:44 11,2 C 10,0 C 82 % 1011,9 hPa 0,0 l/m 0 min 0 min 0,0 UV-I 0 W/m 15,4 km/h (3 Bft)
08.05.2014 02:46 11,1 C 10,0 C 82 % 1012,0 hPa 0,0 l/m 0 min 0 min 0,0 UV-I 0 W/m 25,7 km/h (4 Bft)
08.05.2014 02:48 11,2 C 10,0 C 82 % 1011,9 hPa 0,0 l/m 0 min 0 min 0,0 UV-I 0 W/m 10,3 km/h (2 Bft)
08.05.2014 02:50 11,2 C 10,0 C 82 % 1012,0 hPa 0,0 l/m 0 min 0 min 0,0 UV-I 0 W/m 7,7 km/h (2 Bft)
08.05.2014 02:52 11,2 C 10,0 C 82 % 1012,0 hPa 0,0 l/m 0 min 0 min 0,0 UV-I 0 W/m 10,3 km/h (2 Bft)
08.05.2014 02:54 11,1 C 10,0 C 82 % 1012,1 hPa 0,0 l/m 0 min 0 min 0,0 UV-I 0 W/m 15,4 km/h (3 Bft)
08.05.2014 02:56 11,1 C 10,0 C 82 % 1012,0 hPa 0,0 l/m 0 min 0 min 0,0 UV-I 0 W/m 12,9 km/h (3 Bft)
08.05.2014 02:58 11,1 C 10,0 C 82 % 1012,0 hPa 0,0 l/m 0 min 0 min 0,0 UV-I 0 W/m 18,0 km/h (3 Bft)
08.05.2014 03:00 11,1 C 9,4 C 82 % 1011,9 hPa 0,0 l/m 0 min 0 min 0,0 UV-I 0 W/m 10,3 km/h (2 Bft)
08.05.2014 03:02 11,1 C 9,4 C 82 % 1012,0 hPa 0,0 l/m 0 min 0 min 0,0 UV-I 0 W/m 7,7 km/h (2 Bft)
08.05.2014 03:06 11,1 C 9,4 C 82 % 1012,0 hPa 0,0 l/m 0 min 0 min 0,0 UV-I 0 W/m 12,9 km/h (3 Bft)
08.05.2014 03:08 11,0 C 9,4 C 82 % 1012,0 hPa 0,0 l/m 0 min 0 min 0,0 UV-I 0 W/m 10,3 km/h (2 Bft)
08.05.2014 03:10 11,0 C 9,4 C 82 % 1012,0 hPa 0,0 l/m 0 min 0 min 0,0 UV-I 0 W/m 10,3 km/h (2 Bft)
08.05.2014 03:12 11,0 C 9,4 C 82 % 1012,0 hPa 0,0 l/m 0 min 0 min 0,0 UV-I 0 W/m 18,0 km/h (3 Bft)
08.05.2014 03:14 11,0 C 9,4 C 82 % 1012,0 hPa 0,0 l/m 0 min 0 min 0,0 UV-I 0 W/m 15,4 km/h (3 Bft)
08.05.2014 03:16 11,0 C 10,0 C 82 % 1012,0 hPa 0,0 l/m 0 min 0 min 0,0 UV-I 0 W/m 15,4 km/h (3 Bft)
08.05.2014 03:18 11,1 C 10,0 C 83 % 1012,0 hPa 0,0 l/m 0 min 0 min 0,0 UV-I 0 W/m 15,4 km/h (3 Bft)
08.05.2014 03:20 11,1 C 10,0 C 83 % 1012,0 hPa 0,0 l/m 0 min 0 min 0,0 UV-I 0 W/m 12,9 km/h (3 Bft)
08.05.2014 03:22 11,1 C 10,0 C 83 % 1012,0 hPa 0,0 l/m 0 min 0 min 0,0 UV-I 0 W/m 20,6 km/h (4 Bft)
08.05.2014 03:24 11,1 C 10,0 C 83 % 1012,1 hPa 0,0 l/m 0 min 0 min 0,0 UV-I 0 W/m 12,9 km/h (3 Bft)
08.05.2014 03:26 11,1 C 10,0 C 83 % 1012,1 hPa 0,0 l/m 0 min 0 min 0,0 UV-I 0 W/m 7,7 km/h (2 Bft)
08.05.2014 03:28 11,1 C 10,0 C 83 % 1012,0 hPa 0,0 l/m 0 min 0 min 0,0 UV-I 0 W/m 7,7 km/h (2 Bft)
08.05.2014 03:30 11,1 C 10,0 C 83 % 1012,0 hPa 0,0 l/m 0 min 0 min 0,0 UV-I 0 W/m 7,7 km/h (2 Bft)
08.05.2014 03:32 11,1 C 10,0 C 83 % 1012,0 hPa 0,0 l/m 0 min 0 min 0,0 UV-I 0 W/m 15,4 km/h (3 Bft)
08.05.2014 03:34 11,1 C 10,0 C 83 % 1012,0 hPa 0,0 l/m 0 min 0 min 0,0 UV-I 0 W/m 2,6 km/h (1 Bft)
08.05.2014 03:36 11,1 C 10,0 C 83 % 1012,1 hPa 0,0 l/m 0 min 0 min 0,0 UV-I 0 W/m 15,4 km/h (3 Bft)
08.05.2014 03:38 11,1 C 10,0 C 83 % 1012,0 hPa 0,0 l/m 0 min 0 min 0,0 UV-I 0 W/m 10,3 km/h (2 Bft)
08.05.2014 03:40 11,1 C 10,0 C 83 % 1012,0 hPa 0,0 l/m 0 min 0 min 0,0 UV-I 0 W/m 12,9 km/h (3 Bft)
08.05.2014 03:42 11,1 C 10,0 C 83 % 1011,9 hPa 0,0 l/m 0 min 0 min 0,0 UV-I 0 W/m 7,7 km/h (2 Bft)
08.05.2014 03:44 11,1 C 10,0 C 83 % 1011,9 hPa 0,0 l/m 0 min 0 min 0,0 UV-I 0 W/m 10,3 km/h (2 Bft)
08.05.2014 03:46 11,1 C 10,0 C 83 % 1011,9 hPa 0,0 l/m 0 min 0 min 0,0 UV-I 0 W/m 15,4 km/h (3 Bft)
08.05.2014 03:48 11,1 C 10,0 C 83 % 1011,9 hPa 0,0 l/m 0 min 0 min 0,0 UV-I 0 W/m 5,1 km/h (1 Bft)
08.05.2014 03:50 11,1 C 10,0 C 83 % 1011,9 hPa 0,0 l/m 0 min 0 min 0,0 UV-I 0 W/m 12,9 km/h (3 Bft)
08.05.2014 03:52 11,1 C 10,0 C 83 % 1011,9 hPa 0,0 l/m 0 min 0 min 0,0 UV-I 0 W/m 2,6 km/h (1 Bft)
08.05.2014 03:54 11,1 C 10,0 C 83 % 1011,9 hPa 0,0 l/m 0 min 0 min 0,0 UV-I 0 W/m 5,1 km/h (1 Bft)
08.05.2014 03:56 11,1 C 9,4 C 83 % 1012,0 hPa 0,0 l/m 0 min 0 min 0,0 UV-I 0 W/m 5,1 km/h (1 Bft)
08.05.2014 03:58 11,1 C 9,4 C 83 % 1011,9 hPa 0,0 l/m 0 min 0 min 0,0 UV-I 0 W/m 10,3 km/h (2 Bft)
08.05.2014 04:00 11,0 C 9,4 C 83 % 1012,0 hPa 0,0 l/m 0 min 0 min 0,0 UV-I 0 W/m 23,2 km/h (4 Bft)
08.05.2014 04:02 11,0 C 9,4 C 83 % 1012,0 hPa 0,0 l/m 0 min 0 min 0,0 UV-I 0 W/m 15,4 km/h (3 Bft)
08.05.2014 04:06 11,0 C 10,0 C 83 % 1011,9 hPa 0,0 l/m 0 min 0 min 0,0 UV-I 0 W/m 15,4 km/h (3 Bft)
08.05.2014 04:08 11,0 C 10,0 C 83 % 1012,0 hPa 0,0 l/m 0 min 0 min 0,0 UV-I 0 W/m 7,7 km/h (2 Bft)
08.05.2014 04:10 11,0 C 10,0 C 83 % 1012,0 hPa 0,0 l/m 0 min 0 min 0,0 UV-I 0 W/m 10,3 km/h (2 Bft)
08.05.2014 04:12 11,0 C 10,0 C 83 % 1012,0 hPa 0,0 l/m 0 min 0 min 0,0 UV-I 0 W/m 10,3 km/h (2 Bft)
08.05.2014 04:14 11,0 C 10,0 C 83 % 1012,0 hPa 0,0 l/m 0 min 0 min 0,0 UV-I 0 W/m 7,7 km/h (2 Bft)
08.05.2014 04:16 11,0 C 10,0 C 83 % 1011,9 hPa 0,0 l/m 0 min 0 min 0,0 UV-I 0 W/m 12,9 km/h (3 Bft)
08.05.2014 04:18 11,0 C 9,4 C 84 % 1012,0 hPa 0,0 l/m 0 min 0 min 0,0 UV-I 0 W/m 5,1 km/h (1 Bft)
08.05.2014 04:20 10,9 C 9,4 C 84 % 1011,9 hPa 0,0 l/m 0 min 0 min 0,0 UV-I 0 W/m 7,7 km/h (2 Bft)
08.05.2014 04:22 11,0 C 9,4 C 84 % 1011,9 hPa 0,0 l/m 0 min 0 min 0,0 UV-I 0 W/m 7,7 km/h (2 Bft)
08.05.2014 04:24 10,9 C 10,0 C 84 % 1012,0 hPa 0,0 l/m 0 min 0 min 0,0 UV-I 0 W/m 10,3 km/h (2 Bft)
08.05.2014 04:26 11,0 C 10,0 C 83 % 1012,0 hPa 0,0 l/m 0 min 0 min 0,0 UV-I 0 W/m 10,3 km/h (2 Bft)
08.05.2014 04:28 11,0 C 10,0 C 83 % 1012,0 hPa 0,0 l/m 0 min 0 min 0,0 UV-I 0 W/m 7,7 km/h (2 Bft)
08.05.2014 04:30 11,0 C 10,0 C 83 % 1012,1 hPa 0,0 l/m 0 min 0 min 0,0 UV-I 0 W/m 12,9 km/h (3 Bft)
08.05.2014 04:32 11,0 C 10,0 C 83 % 1012,0 hPa 0,0 l/m 0 min 0 min 0,0 UV-I 0 W/m 12,9 km/h (3 Bft)
08.05.2014 04:34 11,0 C 10,0 C 84 % 1012,0 hPa 0,0 l/m 0 min 0 min 0,0 UV-I 0 W/m 0,0 km/h (0 Bft)
08.05.2014 04:36 11,0 C 10,0 C 84 % 1012,0 hPa 0,0 l/m 0 min 0 min 0,0 UV-I 0 W/m 0,0 km/h (0 Bft)
08.05.2014 04:38 11,0 C 10,0 C 84 % 1012,0 hPa 0,0 l/m 0 min 0 min 0,0 UV-I 0 W/m 7,7 km/h (2 Bft)
08.05.2014 04:40 11,0 C 10,0 C 84 % 1012,0 hPa 0,0 l/m 0 min 0 min 0,0 UV-I 0 W/m 10,3 km/h (2 Bft)
08.05.2014 04:42 11,0 C 10,0 C 84 % 1012,0 hPa 0,0 l/m 0 min 0 min 0,0 UV-I 0 W/m 7,7 km/h (2 Bft)
08.05.2014 04:44 11,0 C 10,0 C 84 % 1012,0 hPa 0,0 l/m 0 min 0 min 0,0 UV-I 0 W/m 12,9 km/h (3 Bft)
08.05.2014 04:46 11,0 C 10,0 C 84 % 1012,0 hPa 0,0 l/m 0 min 0 min 0,0 UV-I 0 W/m 18,0 km/h (3 Bft)
08.05.2014 04:48 11,0 C 10,0 C 84 % 1012,0 hPa 0,0 l/m 0 min 0 min 0,0 UV-I 0 W/m 15,4 km/h (3 Bft)
08.05.2014 04:50 11,0 C 10,0 C 84 % 1012,0 hPa 0,0 l/m 0 min 0 min 0,0 UV-I 0 W/m 7,7 km/h (2 Bft)
08.05.2014 04:52 11,0 C 10,0 C 84 % 1012,0 hPa 0,0 l/m 0 min 0 min 0,0 UV-I 0 W/m 7,7 km/h (2 Bft)
08.05.2014 04:54 11,0 C 10,0 C 84 % 1012,0 hPa 0,0 l/m 0 min 0 min 0,0 UV-I 0 W/m 20,6 km/h (4 Bft)
08.05.2014 04:56 11,0 C 10,0 C 84 % 1012,0 hPa 0,0 l/m 0 min 0 min 0,0 UV-I 0 W/m 10,3 km/h (2 Bft)
08.05.2014 04:58 11,0 C 10,0 C 84 % 1012,0 hPa 0,0 l/m 0 min 0 min 0,0 UV-I 0 W/m 5,1 km/h (1 Bft)
08.05.2014 05:00 10,9 C 10,0 C 84 % 1011,9 hPa 0,0 l/m 0 min 0 min 0,0 UV-I 0 W/m 10,3 km/h (2 Bft)
08.05.2014 05:02 10,9 C 10,0 C 84 % 1012,0 hPa 0,0 l/m 0 min 0 min 0,0 UV-I 0 W/m 5,1 km/h (1 Bft)
08.05.2014 05:05 10,9 C 10,0 C 84 % 1012,0 hPa 0,0 l/m 0 min 0 min 0,0 UV-I 0 W/m 15,4 km/h (3 Bft)
08.05.2014 05:06 10,9 C 10,0 C 84 % 1012,0 hPa 0,0 l/m 0 min 0 min 0,0 UV-I 0 W/m 7,7 km/h (2 Bft)
08.05.2014 05:08 10,9 C 10,0 C 84 % 1012,0 hPa 0,0 l/m 0 min 0 min 0,0 UV-I 0 W/m 15,4 km/h (3 Bft)
08.05.2014 05:10 10,9 C 10,0 C 84 % 1011,9 hPa 0,0 l/m 0 min 0 min 0,0 UV-I 0 W/m 25,7 km/h (4 Bft)
08.05.2014 05:12 10,9 C 9,4 C 84 % 1011,9 hPa 0,0 l/m 0 min 0 min 0,0 UV-I 0 W/m 10,3 km/h (2 Bft)
08.05.2014 05:14 10,9 C 9,4 C 84 % 1012,0 hPa 0,0 l/m 0 min 0 min 0,0 UV-I 0 W/m 15,4 km/h (3 Bft)
08.05.2014 05:16 10,9 C 9,4 C 84 % 1012,0 hPa 0,0 l/m 0 min 0 min 0,0 UV-I 0 W/m 15,4 km/h (3 Bft)
08.05.2014 05:18 10,9 C 9,4 C 84 % 1011,9 hPa 0,0 l/m 0 min 0 min 0,0 UV-I 0 W/m 12,9 km/h (3 Bft)
08.05.2014 05:20 10,9 C 9,4 C 84 % 1012,0 hPa 0,0 l/m 0 min 0 min 0,0 UV-I 0 W/m 5,1 km/h (1 Bft)
08.05.2014 05:22 10,9 C 9,4 C 84 % 1011,9 hPa 0,0 l/m 0 min 0 min 0,0 UV-I 0 W/m 25,7 km/h (4 Bft)
08.05.2014 05:24 10,9 C 9,4 C 84 % 1011,9 hPa 0,0 l/m 0 min 0 min 0,0 UV-I 0 W/m 12,9 km/h (3 Bft)
08.05.2014 05:26 10,9 C 9,4 C 84 % 1012,0 hPa 0,0 l/m 0 min 0 min 0,0 UV-I 0 W/m 20,6 km/h (4 Bft)
08.05.2014 05:28 10,9 C 9,4 C 84 % 1011,9 hPa 0,0 l/m 0 min 0 min 0,0 UV-I 0 W/m 7,7 km/h (2 Bft)
08.05.2014 05:30 10,8 C 9,4 C 84 % 1011,9 hPa 0,0 l/m 0 min 0 min 0,0 UV-I 0 W/m 7,7 km/h (2 Bft)
08.05.2014 05:32 10,8 C 9,4 C 84 % 1011,9 hPa 0,0 l/m 0 min 0 min 0,0 UV-I 0 W/m 15,4 km/h (3 Bft)
08.05.2014 05:34 10,8 C 9,4 C 84 % 1011,9 hPa 0,0 l/m 0 min 0 min 0,0 UV-I 0 W/m 15,4 km/h (3 Bft)
08.05.2014 05:36 10,8 C 9,4 C 84 % 1011,8 hPa 0,0 l/m 0 min 0 min 0,0 UV-I 0 W/m 12,9 km/h (3 Bft)
08.05.2014 05:38 10,8 C 9,4 C 84 % 1011,9 hPa 0,0 l/m 0 min 0 min 0,0 UV-I 0 W/m 15,4 km/h (3 Bft)
08.05.2014 05:40 10,8 C 9,4 C 84 % 1011,9 hPa 0,0 l/m 0 min 0 min 0,0 UV-I 0 W/m 12,9 km/h (3 Bft)
08.05.2014 05:42 10,8 C 9,4 C 84 % 1012,0 hPa 0,0 l/m 0 min 0 min 0,0 UV-I 0 W/m 20,6 km/h (4 Bft)
08.05.2014 05:44 10,8 C 9,4 C 84 % 1011,9 hPa 0,0 l/m 0 min 0 min 0,0 UV-I 0 W/m 12,9 km/h (3 Bft)
08.05.2014 05:46 10,8 C 9,4 C 85 % 1012,0 hPa 0,0 l/m 0 min 0 min 0,0 UV-I 0 W/m 10,3 km/h (2 Bft)
08.05.2014 05:48 10,8 C 9,4 C 85 % 1012,0 hPa 0,0 l/m 0 min 0 min 0,0 UV-I 0 W/m 5,1 km/h (1 Bft)
08.05.2014 05:50 10,7 C 9,4 C 85 % 1012,0 hPa 0,0 l/m 0 min 0 min 0,0 UV-I 0 W/m 2,6 km/h (1 Bft)
08.05.2014 05:52 10,7 C 9,4 C 85 % 1012,0 hPa 0,0 l/m 0 min 0 min 0,0 UV-I 0 W/m 10,3 km/h (2 Bft)
08.05.2014 05:54 10,7 C 9,4 C 85 % 1012,0 hPa 0,0 l/m 0 min 0 min 0,0 UV-I 0 W/m 7,7 km/h (2 Bft)
08.05.2014 05:56 10,7 C 9,4 C 85 % 1012,0 hPa 0,0 l/m 0 min 0 min 0,0 UV-I 0 W/m 10,3 km/h (2 Bft)
08.05.2014 05:58 10,7 C 9,4 C 85 % 1012,1 hPa 0,0 l/m 0 min 0 min 0,0 UV-I 0 W/m 2,6 km/h (1 Bft)
08.05.2014 06:00 10,7 C 9,4 C 85 % 1012,1 hPa 0,0 l/m 0 min 0 min 0,0 UV-I 0 W/m 10,3 km/h (2 Bft)
08.05.2014 06:02 10,7 C 9,4 C 85 % 1012,1 hPa 0,0 l/m 0 min 0 min 0,0 UV-I 0 W/m 2,6 km/h (1 Bft)
08.05.2014 06:05 10,7 C 9,4 C 85 % 1012,0 hPa 0,0 l/m 0 min 0 min 0,0 UV-I 0 W/m 7,7 km/h (2 Bft)
08.05.2014 06:06 10,7 C 9,4 C 85 % 1012,0 hPa 0,0 l/m 0 min 0 min 0,0 UV-I 0 W/m 2,6 km/h (1 Bft)
08.05.2014 06:08 10,7 C 9,4 C 85 % 1011,9 hPa 0,0 l/m 0 min 0 min 0,0 UV-I 5 W/m 7,7 km/h (2 Bft)
08.05.2014 06:10 10,7 C 9,4 C 86 % 1012,0 hPa 0,0 l/m 0 min 0 min 0,0 UV-I 5 W/m 7,7 km/h (2 Bft)
08.05.2014 06:12 10,7 C 9,4 C 86 % 1012,2 hPa 0,0 l/m 0 min 0 min 0,0 UV-I 5 W/m 2,6 km/h (1 Bft)
08.05.2014 06:14 10,7 C 9,4 C 86 % 1012,1 hPa 0,0 l/m 0 min 0 min 0,0 UV-I 5 W/m 15,4 km/h (3 Bft)
08.05.2014 06:16 10,7 C 9,4 C 85 % 1012,1 hPa 0,0 l/m 0 min 0 min 0,0 UV-I 5 W/m 7,7 km/h (2 Bft)
08.05.2014 06:18 10,7 C 9,4 C 86 % 1012,2 hPa 0,0 l/m 0 min 0 min 0,0 UV-I 5 W/m 2,6 km/h (1 Bft)
08.05.2014 06:20 10,7 C 9,4 C 85 % 1012,1 hPa 0,0 l/m 0 min 0 min 0,0 UV-I 5 W/m 10,3 km/h (2 Bft)
08.05.2014 06:22 10,7 C 9,4 C 85 % 1012,1 hPa 0,0 l/m 0 min 0 min 0,0 UV-I 5 W/m 5,1 km/h (1 Bft)
08.05.2014 06:24 10,7 C 9,4 C 85 % 1012,2 hPa 0,0 l/m 0 min 0 min 0,0 UV-I 7 W/m 7,7 km/h (2 Bft)
08.05.2014 06:26 10,7 C 9,4 C 85 % 1012,2 hPa 0,0 l/m 0 min 0 min 0,0 UV-I 5 W/m 7,7 km/h (2 Bft)
08.05.2014 06:28 10,7 C 9,4 C 85 % 1012,2 hPa 0,0 l/m 0 min 0 min 0,0 UV-I 7 W/m 2,6 km/h (1 Bft)
08.05.2014 06:30 10,7 C 9,4 C 85 % 1012,3 hPa 0,0 l/m 0 min 0 min 0,0 UV-I 7 W/m 10,3 km/h (2 Bft)
08.05.2014 06:32 10,7 C 9,4 C 86 % 1012,3 hPa 0,0 l/m 0 min 0 min 0,0 UV-I 5 W/m 10,3 km/h (2 Bft)
08.05.2014 06:34 10,6 C 9,4 C 86 % 1012,3 hPa 0,0 l/m 0 min 0 min 0,0 UV-I 5 W/m 10,3 km/h (2 Bft)
08.05.2014 06:36 10,6 C 9,4 C 86 % 1012,5 hPa 0,0 l/m 0 min 0 min 0,0 UV-I 7 W/m 10,3 km/h (2 Bft)
08.05.2014 06:38 10,7 C 9,4 C 86 % 1012,4 hPa 0,0 l/m 0 min 0 min 0,0 UV-I 9 W/m 2,6 km/h (1 Bft)
08.05.2014 06:40 10,7 C 9,4 C 86 % 1012,3 hPa 0,0 l/m 0 min 0 min 0,0 UV-I 9 W/m 0,0 km/h (0 Bft)
08.05.2014 06:42 10,6 C 9,4 C 86 % 1012,4 hPa 0,0 l/m 0 min 0 min 0,0 UV-I 11 W/m 7,7 km/h (2 Bft)
08.05.2014 06:44 10,6 C 9,4 C 86 % 1012,4 hPa 0,0 l/m 0 min 0 min 0,0 UV-I 12 W/m 10,3 km/h (2 Bft)
08.05.2014 06:46 10,6 C 9,4 C 86 % 1012,4 hPa 0,0 l/m 0 min 0 min 0,0 UV-I 12 W/m 18,0 km/h (3 Bft)
08.05.2014 06:48 10,6 C 9,4 C 85 % 1012,4 hPa 0,0 l/m 0 min 0 min 0,0 UV-I 12 W/m 20,6 km/h (4 Bft)
08.05.2014 06:50 10,6 C 9,4 C 85 % 1012,4 hPa 0,0 l/m 0 min 0 min 0,0 UV-I 14 W/m 15,4 km/h (3 Bft)
08.05.2014 06:52 10,6 C 9,4 C 85 % 1012,4 hPa 0,0 l/m 0 min 0 min 0,0 UV-I 19 W/m 2,6 km/h (1 Bft)
08.05.2014 06:54 10,6 C 9,4 C 86 % 1012,5 hPa 0,0 l/m 0 min 0 min 0,0 UV-I 23 W/m 18,0 km/h (3 Bft)
08.05.2014 06:56 10,6 C 9,4 C 86 % 1012,5 hPa 0,0 l/m 0 min 0 min 0,0 UV-I 26 W/m 10,3 km/h (2 Bft)
08.05.2014 06:58 10,7 C 9,4 C 86 % 1012,5 hPa 0,0 l/m 0 min 0 min 0,0 UV-I 30 W/m 7,7 km/h (2 Bft)
08.05.2014 07:00 10,7 C 9,4 C 86 % 1012,5 hPa 0,0 l/m 0 min 0 min 0,0 UV-I 30 W/m 0,0 km/h (0 Bft)
08.05.2014 07:02 10,7 C 9,4 C 86 % 1012,4 hPa 0,0 l/m 0 min 0 min 0,0 UV-I 30 W/m 12,9 km/h (3 Bft)
08.05.2014 07:05 10,7 C 10,0 C 86 % 1012,5 hPa 0,0 l/m 0 min 0 min 0,0 UV-I 35 W/m 5,1 km/h (1 Bft)
08.05.2014 07:06 10,7 C 10,0 C 86 % 1012,5 hPa 0,0 l/m 0 min 0 min 0,0 UV-I 37 W/m 10,3 km/h (2 Bft)
08.05.2014 07:08 10,7 C 10,0 C 86 % 1012,6 hPa 0,0 l/m 0 min 0 min 0,0 UV-I 37 W/m 10,3 km/h (2 Bft)
08.05.2014 07:10 10,7 C 10,0 C 86 % 1012,6 hPa 0,0 l/m 0 min 0 min 0,0 UV-I 40 W/m 7,7 km/h (2 Bft)
08.05.2014 07:12 10,7 C 10,0 C 86 % 1012,6 hPa 0,0 l/m 0 min 0 min 0,0 UV-I 39 W/m 15,4 km/h (3 Bft)
08.05.2014 07:14 10,7 C 10,0 C 86 % 1012,6 hPa 0,0 l/m 0 min 0 min 0,0 UV-I 35 W/m 25,7 km/h (4 Bft)
08.05.2014 07:16 10,7 C 10,0 C 86 % 1012,6 hPa 0,0 l/m 0 min 0 min 0,0 UV-I 35 W/m 5,1 km/h (1 Bft)
08.05.2014 07:18 10,7 C 10,0 C 86 % 1012,6 hPa 0,0 l/m 0 min 0 min 0,0 UV-I 47 W/m 7,7 km/h (2 Bft)
08.05.2014 07:20 10,7 C 10,0 C 86 % 1012,6 hPa 0,0 l/m 0 min 0 min 0,0 UV-I 60 W/m 10,3 km/h (2 Bft)
08.05.2014 07:22 10,8 C 10,0 C 86 % 1012,6 hPa 0,0 l/m 0 min 0 min 0,0 UV-I 86 W/m 15,4 km/h (3 Bft)
08.05.2014 07:24 10,8 C 10,0 C 86 % 1012,5 hPa 0,0 l/m 0 min 0 min 0,0 UV-I 102 W/m 12,9 km/h (3 Bft)
08.05.2014 07:26 10,8 C 10,0 C 85 % 1012,6 hPa 0,0 l/m 0 min 0 min 0,0 UV-I 93 W/m 15,4 km/h (3 Bft)
08.05.2014 07:28 10,8 C 10,0 C 85 % 1012,6 hPa 0,0 l/m 0 min 0 min 0,0 UV-I 84 W/m 12,9 km/h (3 Bft)
08.05.2014 07:30 10,9 C 10,0 C 85 % 1012,7 hPa 0,0 l/m 0 min 0 min 0,0 UV-I 70 W/m 7,7 km/h (2 Bft)
08.05.2014 07:32 10,9 C 10,0 C 85 % 1012,6 hPa 0,0 l/m 0 min 0 min 0,0 UV-I 67 W/m 12,9 km/h (3 Bft)
08.05.2014 07:34 10,9 C 10,0 C 85 % 1012,6 hPa 0,0 l/m 0 min 0 min 0,0 UV-I 70 W/m 20,6 km/h (4 Bft)
08.05.2014 07:36 10,9 C 10,0 C 85 % 1012,6 hPa 0,0 l/m 0 min 0 min 0,0 UV-I 86 W/m 28,3 km/h (4 Bft)
08.05.2014 07:38 10,9 C 10,0 C 85 % 1012,6 hPa 0,0 l/m 0 min 0 min 0,0 UV-I 95 W/m 15,4 km/h (3 Bft)
08.05.2014 07:40 10,9 C 10,0 C 85 % 1012,6 hPa 0,0 l/m 0 min 0 min 0,0 UV-I 98 W/m 12,9 km/h (3 Bft)
08.05.2014 07:42 10,9 C 10,0 C 85 % 1012,7 hPa 0,0 l/m 0 min 0 min 0,0 UV-I 88 W/m 2,6 km/h (1 Bft)
08.05.2014 07:44 11,0 C 10,0 C 86 % 1012,8 hPa 0,0 l/m 0 min 0 min 0,0 UV-I 91 W/m 7,7 km/h (2 Bft)
08.05.2014 07:46 11,0 C 10,6 C 86 % 1012,8 hPa 0,0 l/m 0 min 0 min 0,0 UV-I 91 W/m 7,7 km/h (2 Bft)
08.05.2014 07:48 11,0 C 10,6 C 86 % 1012,8 hPa 0,0 l/m 0 min 0 min 0,0 UV-I 84 W/m 7,7 km/h (2 Bft)
08.05.2014 07:50 11,1 C 10,6 C 86 % 1012,8 hPa 0,0 l/m 0 min 0 min 0,0 UV-I 88 W/m 12,9 km/h (3 Bft)
08.05.2014 07:52 11,1 C 10,6 C 86 % 1012,8 hPa 0,0 l/m 0 min 0 min 0,0 UV-I 98 W/m 10,3 km/h (2 Bft)
08.05.2014 07:54 11,1 C 10,6 C 85 % 1012,7 hPa 0,0 l/m 0 min 0 min 0,0 UV-I 105 W/m 10,3 km/h (2 Bft)
08.05.2014 07:56 11,1 C 10,6 C 85 % 1012,7 hPa 0,0 l/m 0 min 0 min 0,0 UV-I 102 W/m 18,0 km/h (3 Bft)
08.05.2014 07:58 11,1 C 10,6 C 85 % 1012,7 hPa 0,0 l/m 0 min 0 min 0,0 UV-I 100 W/m 15,4 km/h (3 Bft)
08.05.2014 08:00 11,1 C 10,6 C 85 % 1012,7 hPa 0,0 l/m 0 min 0 min 0,0 UV-I 114 W/m 20,6 km/h (4 Bft)
08.05.2014 08:02 11,1 C 10,6 C 85 % 1012,6 hPa 0,0 l/m 0 min 0 min 0,0 UV-I 130 W/m 10,3 km/h (2 Bft)
08.05.2014 08:05 11,2 C 10,6 C 85 % 1012,5 hPa 0,0 l/m 0 min 0 min 0,0 UV-I 121 W/m 5,1 km/h (1 Bft)
08.05.2014 08:06 11,2 C 10,6 C 85 % 1012,5 hPa 0,0 l/m 0 min 0 min 0,0 UV-I 118 W/m 10,3 km/h (2 Bft)
08.05.2014 08:08 11,2 C 10,6 C 85 % 1012,6 hPa 0,0 l/m 0 min 0 min 0,0 UV-I 107 W/m 12,9 km/h (3 Bft)
08.05.2014 08:10 11,2 C 10,6 C 85 % 1012,6 hPa 0,0 l/m 0 min 0 min 0,0 UV-I 93 W/m 10,3 km/h (2 Bft)
08.05.2014 08:12 11,2 C 10,6 C 85 % 1012,6 hPa 0,0 l/m 0 min 0 min 0,0 UV-I 93 W/m 10,3 km/h (2 Bft)
08.05.2014 08:14 11,2 C 10,6 C 85 % 1012,6 hPa 0,0 l/m 0 min 0 min 0,0 UV-I 102 W/m 18,0 km/h (3 Bft)
08.05.2014 08:16 11,2 C 10,6 C 84 % 1012,5 hPa 0,0 l/m 0 min 0 min 0,0 UV-I 113 W/m 20,6 km/h (4 Bft)
08.05.2014 08:18 11,2 C 10,6 C 85 % 1012,5 hPa 0,0 l/m 0 min 0 min 0,0 UV-I 123 W/m 18,0 km/h (3 Bft)
08.05.2014 08:20 11,2 C 10,6 C 84 % 1012,5 hPa 0,0 l/m 0 min 0 min 0,0 UV-I 128 W/m 15,4 km/h (3 Bft)
08.05.2014 08:22 11,2 C 10,6 C 84 % 1012,5 hPa 0,0 l/m 0 min 0 min 0,0 UV-I 137 W/m 20,6 km/h (4 Bft)
08.05.2014 08:24 11,2 C 10,6 C 85 % 1012,4 hPa 0,0 l/m 0 min 0 min 0,0 UV-I 171 W/m 10,3 km/h (2 Bft)
08.05.2014 08:26 11,2 C 10,6 C 85 % 1012,5 hPa 0,0 l/m 0 min 0 min 0,0 UV-I 195 W/m 18,0 km/h (3 Bft)
08.05.2014 08:28 11,3 C 11,1 C 85 % 1012,5 hPa 0,0 l/m 0 min 0 min 0,0 UV-I 204 W/m 10,3 km/h (2 Bft)
08.05.2014 08:30 11,4 C 11,1 C 85 % 1012,6 hPa 0,0 l/m 0 min 0 min 0,0 UV-I 202 W/m 10,3 km/h (2 Bft)
08.05.2014 08:32 11,4 C 11,1 C 84 % 1012,7 hPa 0,0 l/m 0 min 0 min 0,0 UV-I 123 W/m 10,3 km/h (2 Bft)
08.05.2014 08:34 11,4 C 11,1 C 84 % 1012,7 hPa 0,0 l/m 0 min 0 min 0,0 UV-I 114 W/m 7,7 km/h (2 Bft)
08.05.2014 08:36 11,5 C 11,1 C 84 % 1012,7 hPa 0,0 l/m 0 min 0 min 0,0 UV-I 123 W/m 5,1 km/h (1 Bft)
08.05.2014 08:38 11,5 C 11,1 C 84 % 1012,8 hPa 0,0 l/m 0 min 0 min 0,0 UV-I 127 W/m 12,9 km/h (3 Bft)
08.05.2014 08:40 11,5 C 11,1 C 84 % 1012,8 hPa 0,0 l/m 0 min 0 min 0,0 UV-I 144 W/m 7,7 km/h (2 Bft)
08.05.2014 08:42 11,5 C 11,1 C 84 % 1012,8 hPa 0,0 l/m 0 min 0 min 0,0 UV-I 148 W/m 10,3 km/h (2 Bft)
08.05.2014 08:44 11,5 C 11,1 C 84 % 1012,8 hPa 0,0 l/m 0 min 0 min 0,0 UV-I 142 W/m 7,7 km/h (2 Bft)
08.05.2014 08:46 11,6 C 11,1 C 84 % 1012,7 hPa 0,0 l/m 0 min 0 min 0,0 UV-I 149 W/m 15,4 km/h (3 Bft)
08.05.2014 08:48 11,6 C 11,1 C 84 % 1012,7 hPa 0,0 l/m 0 min 0 min 0,0 UV-I 151 W/m 15,4 km/h (3 Bft)
08.05.2014 08:50 11,5 C 11,1 C 84 % 1012,7 hPa 0,0 l/m 0 min 0 min 0,0 UV-I 153 W/m 25,7 km/h (4 Bft)
08.05.2014 08:52 11,6 C 11,1 C 84 % 1012,6 hPa 0,0 l/m 0 min 0 min 0,0 UV-I 176 W/m 0,0 km/h (0 Bft)
08.05.2014 08:54 11,7 C 11,1 C 84 % 1012,6 hPa 0,0 l/m 0 min 0 min 0,0 UV-I 174 W/m 12,9 km/h (3 Bft)
08.05.2014 08:56 11,7 C 11,1 C 84 % 1012,8 hPa 0,0 l/m 0 min 0 min 0,0 UV-I 151 W/m 7,7 km/h (2 Bft)
08.05.2014 08:58 11,7 C 11,1 C 84 % 1012,7 hPa 0,0 l/m 0 min 0 min 0,0 UV-I 137 W/m 10,3 km/h (2 Bft)
08.05.2014 09:00 11,7 C 11,1 C 83 % 1012,7 hPa 0,0 l/m 0 min 0 min 0,0 UV-I 130 W/m 15,4 km/h (3 Bft)
08.05.2014 09:02 11,7 C 11,1 C 83 % 1012,6 hPa 0,0 l/m 0 min 0 min 0,0 UV-I 116 W/m 15,4 km/h (3 Bft)
08.05.2014 09:05 11,7 C 11,1 C 84 % 1012,6 hPa 0,0 l/m 0 min 0 min 0,0 UV-I 120 W/m 15,4 km/h (3 Bft)
08.05.2014 09:06 11,7 C 11,1 C 84 % 1012,6 hPa 0,0 l/m 0 min 0 min 0,0 UV-I 139 W/m 20,6 km/h (4 Bft)
08.05.2014 09:08 11,7 C 11,1 C 84 % 1012,7 hPa 0,0 l/m 0 min 0 min 0,0 UV-I 163 W/m 2,6 km/h (1 Bft)
08.05.2014 09:10 11,7 C 11,1 C 84 % 1012,7 hPa 0,0 l/m 0 min 0 min 0,0 UV-I 171 W/m 25,7 km/h (4 Bft)
08.05.2014 09:12 11,7 C 11,1 C 83 % 1012,6 hPa 0,0 l/m 0 min 0 min 0,0 UV-I 181 W/m 15,4 km/h (3 Bft)
08.05.2014 09:14 11,7 C 11,1 C 83 % 1012,6 hPa 0,0 l/m 0 min 0 min 0,0 UV-I 176 W/m 25,7 km/h (4 Bft)
08.05.2014 09:16 11,7 C 11,1 C 83 % 1012,6 hPa 0,0 l/m 0 min 0 min 0,0 UV-I 174 W/m 10,3 km/h (2 Bft)
08.05.2014 09:18 11,7 C 11,1 C 83 % 1012,6 hPa 0,0 l/m 0 min 0 min 0,0 UV-I 167 W/m 10,3 km/h (2 Bft)
08.05.2014 09:20 11,8 C 11,1 C 83 % 1012,7 hPa 0,0 l/m 0 min 0 min 0,0 UV-I 148 W/m 20,6 km/h (4 Bft)
08.05.2014 09:22 11,8 C 11,1 C 83 % 1012,7 hPa 0,0 l/m 0 min 0 min 0,0 UV-I 105 W/m 20,6 km/h (4 Bft)
08.05.2014 09:24 11,8 C 11,1 C 83 % 1012,7 hPa 0,0 l/m 0 min 0 min 0,0 UV-I 91 W/m 10,3 km/h (2 Bft)
08.05.2014 09:26 11,7 C 11,1 C 83 % 1012,6 hPa 0,0 l/m 0 min 0 min 0,0 UV-I 104 W/m 18,0 km/h (3 Bft)
08.05.2014 09:28 11,7 C 11,1 C 83 % 1012,7 hPa 0,0 l/m 0 min 0 min 0,0 UV-I 137 W/m 18,0 km/h (3 Bft)
08.05.2014 09:30 11,8 C 11,1 C 83 % 1012,7 hPa 0,0 l/m 0 min 0 min 0,0 UV-I 148 W/m 7,7 km/h (2 Bft)
08.05.2014 09:32 11,8 C 11,1 C 83 % 1012,5 hPa 0,0 l/m 0 min 0 min 0,0 UV-I 188 W/m 18,0 km/h (3 Bft)
08.05.2014 09:34 11,8 C 11,7 C 83 % 1012,4 hPa 0,0 l/m 0 min 0 min 0,0 UV-I 214 W/m 12,9 km/h (3 Bft)
08.05.2014 09:36 11,9 C 11,7 C 83 % 1012,5 hPa 0,0 l/m 0 min 0 min 0,0 UV-I 237 W/m 10,3 km/h (2 Bft)
08.05.2014 09:38 12,0 C 11,7 C 83 % 1012,5 hPa 0,0 l/m 0 min 0 min 0,0 UV-I 244 W/m 15,4 km/h (3 Bft)
08.05.2014 09:40 12,1 C 12,2 C 82 % 1012,5 hPa 0,0 l/m 0 min 0 min 0,0 UV-I 250 W/m 15,4 km/h (3 Bft)
08.05.2014 09:42 12,2 C 12,2 C 82 % 1012,5 hPa 0,0 l/m 0 min 0 min 0,0 UV-I 295 W/m 7,7 km/h (2 Bft)
08.05.2014 09:44 12,3 C 12,2 C 81 % 1012,5 hPa 0,0 l/m 2 min 0 min 0,0 UV-I 313 W/m 30,9 km/h (5 Bft)
08.05.2014 09:46 12,3 C 12,2 C 80 % 1012,6 hPa 0,0 l/m 0 min 0 min 0,0 UV-I 271 W/m 15,4 km/h (3 Bft)
08.05.2014 09:48 12,4 C 12,2 C 81 % 1012,6 hPa 0,0 l/m 0 min 0 min 0,0 UV-I 267 W/m 20,6 km/h (4 Bft)
08.05.2014 09:50 12,4 C 12,2 C 80 % 1012,5 hPa 0,0 l/m 0 min 0 min 0,0 UV-I 287 W/m 23,2 km/h (4 Bft)
08.05.2014 09:52 12,4 C 12,2 C 79 % 1012,5 hPa 0,0 l/m 0 min 0 min 0,0 UV-I 272 W/m 25,7 km/h (4 Bft)
08.05.2014 09:54 12,4 C 12,2 C 80 % 1012,6 hPa 0,0 l/m 0 min 0 min 0,0 UV-I 269 W/m 25,7 km/h (4 Bft)
08.05.2014 09:56 12,6 C 12,2 C 80 % 1012,6 hPa 0,0 l/m 0 min 0 min 0,0 UV-I 279 W/m 7,7 km/h (2 Bft)
08.05.2014 09:58 12,6 C 12,8 C 80 % 1012,7 hPa 0,0 l/m 0 min 0 min 0,0 UV-I 265 W/m 18,0 km/h (3 Bft)
08.05.2014 10:00 12,7 C 12,8 C 80 % 1012,7 hPa 0,0 l/m 0 min 0 min 0,0 UV-I 258 W/m 18,0 km/h (3 Bft)
08.05.2014 10:02 12,7 C 12,8 C 80 % 1012,6 hPa 0,0 l/m 0 min 0 min 0,0 UV-I 279 W/m 12,9 km/h (3 Bft)
08.05.2014 10:05 12,7 C 12,2 C 79 % 1012,7 hPa 0,0 l/m 0 min 0 min 0,0 UV-I 262 W/m 23,2 km/h (4 Bft)
08.05.2014 10:06 12,7 C 12,8 C 80 % 1012,7 hPa 0,0 l/m 0 min 0 min 0,0 UV-I 262 W/m 5,1 km/h (1 Bft)
08.05.2014 10:08 12,7 C 12,8 C 80 % 1012,6 hPa 0,0 l/m 0 min 0 min 0,0 UV-I 248 W/m 20,6 km/h (4 Bft)
08.05.2014 10:10 12,7 C 12,2 C 79 % 1012,6 hPa 0,0 l/m 0 min 0 min 0,0 UV-I 246 W/m 23,2 km/h (4 Bft)
08.05.2014 10:12 12,7 C 12,2 C 78 % 1012,7 hPa 0,0 l/m 0 min 0 min 0,0 UV-I 206 W/m 20,6 km/h (4 Bft)
08.05.2014 10:14 12,6 C 12,2 C 78 % 1012,8 hPa 0,0 l/m 0 min 0 min 0,0 UV-I 144 W/m 12,9 km/h (3 Bft)
08.05.2014 10:16 12,6 C 12,2 C 79 % 1012,8 hPa 0,0 l/m 0 min 0 min 0,0 UV-I 125 W/m 30,9 km/h (5 Bft)
08.05.2014 10:18 12,5 C 11,7 C 79 % 1012,8 hPa 0,0 l/m 0 min 0 min 0,0 UV-I 176 W/m 18,0 km/h (3 Bft)
08.05.2014 10:20 12,4 C 12,2 C 79 % 1012,8 hPa 0,0 l/m 0 min 0 min 0,0 UV-I 260 W/m 18,0 km/h (3 Bft)
08.05.2014 10:22 12,4 C 12,2 C 79 % 1012,7 hPa 0,0 l/m 0 min 0 min 0,6 UV-I 278 W/m 15,4 km/h (3 Bft)
08.05.2014 10:24 12,4 C 12,2 C 78 % 1012,8 hPa 0,0 l/m 0 min 0 min 0,6 UV-I 299 W/m 28,3 km/h (4 Bft)
08.05.2014 10:26 12,4 C 12,2 C 79 % 1012,8 hPa 0,0 l/m 0 min 0 min 0,7 UV-I 318 W/m 23,2 km/h (4 Bft)
08.05.2014 10:28 12,5 C 12,8 C 78 % 1012,8 hPa 0,0 l/m 2 min 0 min 0,8 UV-I 355 W/m 18,0 km/h (3 Bft)
08.05.2014 10:30 12,6 C 12,8 C 78 % 1012,7 hPa 0,0 l/m 0 min 0 min 0,8 UV-I 346 W/m 23,2 km/h (4 Bft)
08.05.2014 10:32 12,6 C 12,8 C 79 % 1012,7 hPa 0,0 l/m 0 min 0 min 0,8 UV-I 329 W/m 12,9 km/h (3 Bft)
08.05.2014 10:34 12,7 C 12,8 C 78 % 1012,7 hPa 0,0 l/m 0 min 0 min 0,8 UV-I 345 W/m 28,3 km/h (4 Bft)
08.05.2014 10:36 12,8 C 12,8 C 78 % 1012,7 hPa 0,0 l/m 0 min 0 min 0,7 UV-I 320 W/m 18,0 km/h (3 Bft)
08.05.2014 10:38 12,8 C 12,8 C 77 % 1012,6 hPa 0,0 l/m 0 min 0 min 0,6 UV-I 299 W/m 18,0 km/h (3 Bft)
08.05.2014 10:40 12,8 C 12,8 C 78 % 1012,9 hPa 0,0 l/m 0 min 0 min 0,7 UV-I 301 W/m 23,2 km/h (4 Bft)
08.05.2014 10:42 12,8 C 12,8 C 77 % 1012,9 hPa 0,0 l/m 0 min 0 min 0,6 UV-I 294 W/m 18,0 km/h (3 Bft)
08.05.2014 10:44 12,7 C 12,8 C 77 % 1012,9 hPa 0,0 l/m 0 min 0 min 0,6 UV-I 278 W/m 15,4 km/h (3 Bft)
08.05.2014 10:46 12,7 C 12,8 C 77 % 1013,0 hPa 0,0 l/m 0 min 0 min 0,5 UV-I 260 W/m 15,4 km/h (3 Bft)
08.05.2014 10:48 12,7 C 12,8 C 78 % 1013,0 hPa 0,0 l/m 0 min 0 min 0,7 UV-I 274 W/m 20,6 km/h (4 Bft)
08.05.2014 10:50 12,7 C 12,8 C 78 % 1012,8 hPa 0,0 l/m 0 min 0 min 0,8 UV-I 292 W/m 20,6 km/h (4 Bft)
08.05.2014 10:52 12,8 C 12,8 C 79 % 1012,7 hPa 0,0 l/m 0 min 0 min 0,9 UV-I 336 W/m 2,6 km/h (1 Bft)
08.05.2014 10:54 12,9 C 13,3 C 78 % 1012,8 hPa 0,0 l/m 0 min 0 min 1,0 UV-I 357 W/m 15,4 km/h (3 Bft)
08.05.2014 10:56 12,9 C 13,3 C 78 % 1012,6 hPa 0,0 l/m 2 min 0 min 1,2 UV-I 420 W/m 12,9 km/h (3 Bft)
08.05.2014 10:58 12,9 C 13,3 C 77 % 1012,6 hPa 0,0 l/m 2 min 0 min 1,1 UV-I 401 W/m 20,6 km/h (4 Bft)
08.05.2014 11:00 12,9 C 13,3 C 78 % 1012,6 hPa 0,0 l/m 0 min 0 min 0,8 UV-I 316 W/m 12,9 km/h (3 Bft)
08.05.2014 11:02 13,0 C 13,3 C 77 % 1012,7 hPa 0,0 l/m 0 min 0 min 0,5 UV-I 269 W/m 18,0 km/h (3 Bft)
08.05.2014 11:05 12,9 C 12,8 C 77 % 1012,8 hPa 0,0 l/m 0 min 0 min 0,0 UV-I 188 W/m 18,0 km/h (3 Bft)
08.05.2014 11:06 12,9 C 12,8 C 77 % 1012,8 hPa 0,0 l/m 0 min 0 min 0,0 UV-I 193 W/m 18,0 km/h (3 Bft)
08.05.2014 11:08 12,9 C 12,8 C 77 % 1012,7 hPa 0,0 l/m 0 min 0 min 0,0 UV-I 202 W/m 12,9 km/h (3 Bft)
08.05.2014 11:10 12,8 C 12,2 C 77 % 1012,8 hPa 0,0 l/m 0 min 0 min 0,0 UV-I 229 W/m 15,4 km/h (3 Bft)
08.05.2014 11:12 12,7 C 12,2 C 77 % 1012,8 hPa 0,0 l/m 0 min 0 min 0,0 UV-I 202 W/m 23,2 km/h (4 Bft)
08.05.2014 11:14 12,7 C 12,8 C 78 % 1012,8 hPa 0,0 l/m 0 min 0 min 0,7 UV-I 278 W/m 23,2 km/h (4 Bft)
08.05.2014 11:16 12,7 C 12,8 C 77 % 1012,7 hPa 0,0 l/m 0 min 0 min 0,7 UV-I 267 W/m 18,0 km/h (3 Bft)
08.05.2014 11:18 12,8 C 12,8 C 77 % 1012,7 hPa 0,0 l/m 0 min 0 min 0,8 UV-I 308 W/m 18,0 km/h (3 Bft)
08.05.2014 11:20 12,8 C 12,8 C 77 % 1012,7 hPa 0,0 l/m 0 min 0 min 0,8 UV-I 306 W/m 7,7 km/h (2 Bft)
08.05.2014 11:22 12,9 C 12,8 C 77 % 1012,7 hPa 0,0 l/m 0 min 0 min 0,7 UV-I 272 W/m 18,0 km/h (3 Bft)
08.05.2014 11:24 12,9 C 12,8 C 77 % 1012,7 hPa 0,0 l/m 0 min 0 min 0,8 UV-I 281 W/m 7,7 km/h (2 Bft)
08.05.2014 11:26 13,0 C 13,3 C 77 % 1012,9 hPa 0,0 l/m 0 min 0 min 0,7 UV-I 279 W/m 10,3 km/h (2 Bft)
08.05.2014 11:28 13,0 C 13,3 C 77 % 1012,7 hPa 0,0 l/m 0 min 0 min 0,5 UV-I 220 W/m 23,2 km/h (4 Bft)
08.05.2014 11:30 13,0 C 12,8 C 76 % 1012,7 hPa 0,0 l/m 0 min 0 min 0,7 UV-I 262 W/m 18,0 km/h (3 Bft)
08.05.2014 11:32 12,9 C 12,8 C 75 % 1012,7 hPa 0,0 l/m 0 min 0 min 0,7 UV-I 260 W/m 18,0 km/h (3 Bft)
08.05.2014 11:34 12,9 C 12,8 C 76 % 1012,5 hPa 0,0 l/m 0 min 0 min 0,7 UV-I 265 W/m 12,9 km/h (3 Bft)
08.05.2014 11:36 12,9 C 12,8 C 76 % 1012,6 hPa 0,0 l/m 0 min 0 min 0,6 UV-I 253 W/m 15,4 km/h (3 Bft)
08.05.2014 11:38 12,9 C 12,8 C 76 % 1012,6 hPa 0,0 l/m 0 min 0 min 0,9 UV-I 287 W/m 10,3 km/h (2 Bft)
08.05.2014 11:40 12,9 C 12,8 C 75 % 1012,6 hPa 0,0 l/m 0 min 0 min 1,1 UV-I 309 W/m 12,9 km/h (3 Bft)
08.05.2014 11:42 13,1 C 13,3 C 76 % 1012,5 hPa 0,0 l/m 0 min 0 min 1,3 UV-I 367 W/m 5,1 km/h (1 Bft)
08.05.2014 11:44 13,2 C 13,3 C 75 % 1012,6 hPa 0,0 l/m 0 min 0 min 1,4 UV-I 411 W/m 25,7 km/h (4 Bft)
08.05.2014 11:46 13,3 C 13,9 C 75 % 1012,6 hPa 0,0 l/m 0 min 0 min 1,2 UV-I 383 W/m 10,3 km/h (2 Bft)
08.05.2014 11:48 13,3 C 13,3 C 74 % 1012,6 hPa 0,0 l/m 0 min 0 min 1,0 UV-I 315 W/m 10,3 km/h (2 Bft)
08.05.2014 11:50 13,3 C 13,3 C 75 % 1012,5 hPa 0,0 l/m 0 min 0 min 0,9 UV-I 304 W/m 7,7 km/h (2 Bft)
08.05.2014 11:52 13,4 C 13,9 C 75 % 1012,5 hPa 0,0 l/m 0 min 0 min 1,1 UV-I 332 W/m 15,4 km/h (3 Bft)
08.05.2014 11:54 13,4 C 13,9 C 75 % 1012,5 hPa 0,0 l/m 0 min 0 min 0,8 UV-I 244 W/m 12,9 km/h (3 Bft)
08.05.2014 11:56 13,4 C 13,3 C 75 % 1012,5 hPa 0,0 l/m 0 min 0 min 0,6 UV-I 234 W/m 12,9 km/h (3 Bft)
08.05.2014 11:58 13,3 C 13,3 C 74 % 1012,5 hPa 0,0 l/m 0 min 0 min 0,9 UV-I 281 W/m 12,9 km/h (3 Bft)
08.05.2014 12:00 13,4 C 13,9 C 75 % 1012,5 hPa 0,0 l/m 0 min 0 min 1,4 UV-I 410 W/m 7,7 km/h (2 Bft)
08.05.2014 12:02 13,5 C 13,9 C 75 % 1012,5 hPa 0,0 l/m 0 min 0 min 1,3 UV-I 378 W/m 7,7 km/h (2 Bft)
08.05.2014 12:05 13,6 C 13,9 C 74 % 1012,4 hPa 0,0 l/m 0 min 0 min 0,7 UV-I 283 W/m 15,4 km/h (3 Bft)
08.05.2014 12:06 13,6 C 13,9 C 74 % 1012,4 hPa 0,0 l/m 0 min 0 min 0,8 UV-I 297 W/m 10,3 km/h (2 Bft)
08.05.2014 12:08 13,6 C 13,9 C 74 % 1012,4 hPa 0,0 l/m 0 min 0 min 1,1 UV-I 336 W/m 23,2 km/h (4 Bft)
08.05.2014 12:10 13,4 C 13,3 C 73 % 1012,4 hPa 0,0 l/m 0 min 0 min 1,4 UV-I 369 W/m 23,2 km/h (4 Bft)
08.05.2014 12:12 13,3 C 13,3 C 73 % 1012,5 hPa 0,0 l/m 0 min 0 min 1,4 UV-I 350 W/m 15,4 km/h (3 Bft)
08.05.2014 12:14 13,3 C 13,9 C 74 % 1012,6 hPa 0,0 l/m 2 min 0 min 2,0 UV-I 446 W/m 20,6 km/h (4 Bft)
08.05.2014 12:16 13,4 C 14,4 C 75 % 1012,5 hPa 0,0 l/m 2 min 0 min 2,3 UV-I 446 W/m 23,2 km/h (4 Bft)
08.05.2014 12:18 13,6 C 14,4 C 74 % 1012,5 hPa 0,0 l/m 0 min 0 min 1,7 UV-I 404 W/m 20,6 km/h (4 Bft)
08.05.2014 12:20 13,6 C 14,4 C 73 % 1012,5 hPa 0,0 l/m 0 min 0 min 1,8 UV-I 415 W/m 15,4 km/h (3 Bft)
08.05.2014 12:22 13,7 C 14,4 C 74 % 1012,5 hPa 0,0 l/m 2 min 0 min 1,8 UV-I 490 W/m 12,9 km/h (3 Bft)
08.05.2014 12:24 13,8 C 14,4 C 75 % 1012,4 hPa 0,0 l/m 0 min 0 min 1,8 UV-I 420 W/m 10,3 km/h (2 Bft)
08.05.2014 12:26 13,9 C 14,4 C 74 % 1012,4 hPa 0,0 l/m 0 min 0 min 1,8 UV-I 387 W/m 10,3 km/h (2 Bft)
08.05.2014 12:28 13,9 C 15,0 C 74 % 1012,4 hPa 0,0 l/m 0 min 0 min 1,9 UV-I 424 W/m 10,3 km/h (2 Bft)
08.05.2014 12:30 13,9 C 14,4 C 73 % 1012,3 hPa 0,0 l/m 2 min 0 min 1,9 UV-I 464 W/m 25,7 km/h (4 Bft)
08.05.2014 12:32 13,9 C 14,4 C 73 % 1012,3 hPa 0,0 l/m 0 min 0 min 2,1 UV-I 413 W/m 18,0 km/h (3 Bft)
08.05.2014 12:34 13,9 C 14,4 C 73 % 1012,3 hPa 0,0 l/m 0 min 0 min 1,7 UV-I 374 W/m 18,0 km/h (3 Bft)
08.05.2014 12:36 13,9 C 14,4 C 73 % 1012,4 hPa 0,0 l/m 0 min 0 min 0,7 UV-I 237 W/m 10,3 km/h (2 Bft)
08.05.2014 12:38 13,8 C 13,9 C 74 % 1012,4 hPa 0,0 l/m 0 min 0 min 0,0 UV-I 190 W/m 7,7 km/h (2 Bft)
08.05.2014 12:40 13,7 C 13,3 C 73 % 1012,5 hPa 0,0 l/m 0 min 0 min 0,0 UV-I 185 W/m 36,0 km/h (5 Bft)
08.05.2014 12:42 13,4 C 12,8 C 73 % 1012,5 hPa 0,0 l/m 0 min 0 min 0,0 UV-I 142 W/m 23,2 km/h (4 Bft)
08.05.2014 12:44 13,3 C 12,8 C 74 % 1012,5 hPa 0,0 l/m 0 min 0 min 0,0 UV-I 169 W/m 25,7 km/h (4 Bft)
08.05.2014 12:46 13,2 C 12,8 C 74 % 1012,4 hPa 0,0 l/m 0 min 0 min 0,5 UV-I 214 W/m 28,3 km/h (4 Bft)
08.05.2014 12:48 13,1 C 12,8 C 75 % 1012,5 hPa 0,0 l/m 0 min 0 min 0,6 UV-I 216 W/m 18,0 km/h (3 Bft)
08.05.2014 12:50 13,1 C 12,8 C 75 % 1012,5 hPa 0,0 l/m 0 min 0 min 0,0 UV-I 181 W/m 25,7 km/h (4 Bft)
08.05.2014 12:52 13,1 C 12,8 C 75 % 1012,5 hPa 0,0 l/m 0 min 0 min 0,0 UV-I 151 W/m 10,3 km/h (2 Bft)
08.05.2014 12:54 13,0 C 12,2 C 75 % 1012,5 hPa 0,0 l/m 0 min 0 min 0,0 UV-I 134 W/m 20,6 km/h (4 Bft)
08.05.2014 12:56 12,9 C 12,2 C 75 % 1012,6 hPa 0,0 l/m 0 min 0 min 0,0 UV-I 116 W/m 36,0 km/h (5 Bft)
08.05.2014 12:58 12,9 C 12,2 C 76 % 1012,6 hPa 0,0 l/m 0 min 0 min 0,0 UV-I 132 W/m 12,9 km/h (3 Bft)
08.05.2014 13:00 12,8 C 12,2 C 76 % 1012,5 hPa 0,0 l/m 0 min 0 min 0,0 UV-I 167 W/m 10,3 km/h (2 Bft)
08.05.2014 13:02 12,8 C 12,2 C 77 % 1012,5 hPa 0,0 l/m 0 min 0 min 0,0 UV-I 179 W/m 10,3 km/h (2 Bft)
08.05.2014 13:05 12,9 C 12,2 C 77 % 1012,7 hPa 0,0 l/m 0 min 0 min 0,0 UV-I 160 W/m 7,7 km/h (2 Bft)
08.05.2014 13:06 12,9 C 12,2 C 77 % 1012,7 hPa 0,0 l/m 0 min 0 min 0,0 UV-I 172 W/m 10,3 km/h (2 Bft)
08.05.2014 13:08 12,9 C 12,2 C 77 % 1012,7 hPa 0,0 l/m 0 min 0 min 0,0 UV-I 176 W/m 18,0 km/h (3 Bft)
08.05.2014 13:10 12,9 C 12,2 C 76 % 1012,6 hPa 0,0 l/m 0 min 0 min 0,0 UV-I 153 W/m 12,9 km/h (3 Bft)
08.05.2014 13:12 12,9 C 12,2 C 76 % 1012,6 hPa 0,0 l/m 0 min 0 min 0,0 UV-I 146 W/m 12,9 km/h (3 Bft)
08.05.2014 13:14 12,9 C 12,2 C 76 % 1012,5 hPa 0,0 l/m 0 min 0 min 0,0 UV-I 153 W/m 15,4 km/h (3 Bft)
08.05.2014 13:16 12,9 C 12,2 C 76 % 1012,5 hPa 0,0 l/m 0 min 0 min 0,0 UV-I 167 W/m 10,3 km/h (2 Bft)
08.05.2014 13:18 12,9 C 12,2 C 76 % 1012,6 hPa 0,0 l/m 0 min 0 min 0,0 UV-I 165 W/m 10,3 km/h (2 Bft)
08.05.2014 13:20 13,0 C 12,2 C 76 % 1012,6 hPa 0,0 l/m 0 min 0 min 0,0 UV-I 158 W/m 12,9 km/h (3 Bft)
08.05.2014 13:22 13,0 C 12,2 C 76 % 1012,5 hPa 0,0 l/m 0 min 0 min 0,0 UV-I 149 W/m 7,7 km/h (2 Bft)
08.05.2014 13:24 13,0 C 12,2 C 76 % 1012,5 hPa 0,0 l/m 0 min 0 min 0,0 UV-I 142 W/m 18,0 km/h (3 Bft)
08.05.2014 13:26 13,1 C 12,2 C 76 % 1012,5 hPa 0,0 l/m 0 min 0 min 0,0 UV-I 165 W/m 15,4 km/h (3 Bft)
08.05.2014 13:28 13,1 C 12,8 C 76 % 1012,5 hPa 0,0 l/m 0 min 0 min 0,0 UV-I 167 W/m 15,4 km/h (3 Bft)
08.05.2014 13:30 13,1 C 12,8 C 76 % 1012,5 hPa 0,0 l/m 0 min 0 min 0,0 UV-I 156 W/m 12,9 km/h (3 Bft)
08.05.2014 13:32 13,2 C 12,8 C 76 % 1012,5 hPa 0,0 l/m 0 min 0 min 0,0 UV-I 123 W/m 2,6 km/h (1 Bft)
08.05.2014 13:34 13,2 C 12,8 C 76 % 1012,5 hPa 0,0 l/m 0 min 0 min 0,0 UV-I 113 W/m 12,9 km/h (3 Bft)
08.05.2014 13:36 13,2 C 12,2 C 76 % 1012,6 hPa 0,0 l/m 0 min 0 min 0,0 UV-I 113 W/m 23,2 km/h (4 Bft)
08.05.2014 13:38 13,2 C 12,2 C 76 % 1012,5 hPa 0,0 l/m 0 min 0 min 0,0 UV-I 91 W/m 12,9 km/h (3 Bft)
08.05.2014 13:40 13,2 C 12,2 C 76 % 1012,6 hPa 0,0 l/m 0 min 0 min 0,0 UV-I 77 W/m 15,4 km/h (3 Bft)
08.05.2014 13:42 13,2 C 12,2 C 76 % 1012,6 hPa 0,0 l/m 0 min 0 min 0,0 UV-I 76 W/m 10,3 km/h (2 Bft)
08.05.2014 13:44 13,1 C 12,2 C 76 % 1012,6 hPa 0,0 l/m 0 min 0 min 0,0 UV-I 76 W/m 15,4 km/h (3 Bft)
08.05.2014 13:46 13,1 C 12,2 C 76 % 1012,7 hPa 0,0 l/m 0 min 0 min 0,0 UV-I 100 W/m 33,5 km/h (5 Bft)
08.05.2014 13:48 13,1 C 12,2 C 75 % 1012,6 hPa 0,0 l/m 0 min 0 min 0,0 UV-I 116 W/m 15,4 km/h (3 Bft)
08.05.2014 13:50 13,1 C 12,2 C 76 % 1012,5 hPa 0,0 l/m 0 min 0 min 0,0 UV-I 116 W/m 7,7 km/h (2 Bft)
08.05.2014 13:52 13,1 C 12,2 C 76 % 1012,4 hPa 0,0 l/m 0 min 0 min 0,0 UV-I 109 W/m 23,2 km/h (4 Bft)
08.05.2014 13:54 13,0 C 12,2 C 76 % 1012,4 hPa 0,0 l/m 0 min 0 min 0,0 UV-I 137 W/m 28,3 km/h (4 Bft)
08.05.2014 13:56 13,1 C 12,2 C 76 % 1012,3 hPa 0,0 l/m 0 min 0 min 0,0 UV-I 148 W/m 5,1 km/h (1 Bft)
08.05.2014 13:58 13,1 C 12,2 C 76 % 1012,4 hPa 0,0 l/m 0 min 0 min 0,0 UV-I 125 W/m 18,0 km/h (3 Bft)
08.05.2014 14:00 13,1 C 12,2 C 76 % 1012,3 hPa 0,0 l/m 0 min 0 min 0,0 UV-I 121 W/m 38,6 km/h (5 Bft)
08.05.2014 14:02 13,1 C 12,2 C 76 % 1012,3 hPa 0,0 l/m 0 min 0 min 0,0 UV-I 113 W/m 18,0 km/h (3 Bft)
08.05.2014 14:05 13,1 C 12,2 C 76 % 1012,3 hPa 0,0 l/m 0 min 0 min 0,0 UV-I 128 W/m 15,4 km/h (3 Bft)
08.05.2014 14:06 13,1 C 12,2 C 76 % 1012,3 hPa 0,0 l/m 0 min 0 min 0,0 UV-I 135 W/m 18,0 km/h (3 Bft)
08.05.2014 14:08 13,1 C 12,2 C 76 % 1012,3 hPa 0,0 l/m 0 min 0 min 0,0 UV-I 120 W/m 12,9 km/h (3 Bft)
08.05.2014 14:10 13,1 C 12,2 C 75 % 1012,3 hPa 0,0 l/m 0 min 0 min 0,0 UV-I 142 W/m 23,2 km/h (4 Bft)
08.05.2014 14:12 13,1 C 12,2 C 75 % 1012,2 hPa 0,0 l/m 0 min 0 min 0,0 UV-I 155 W/m 10,3 km/h (2 Bft)
08.05.2014 14:14 13,2 C 12,2 C 75 % 1012,1 hPa 0,0 l/m 0 min 0 min 0,0 UV-I 174 W/m 10,3 km/h (2 Bft)
08.05.2014 14:16 13,2 C 12,8 C 76 % 1012,1 hPa 0,0 l/m 0 min 0 min 0,0 UV-I 169 W/m 7,7 km/h (2 Bft)
08.05.2014 14:18 13,3 C 12,8 C 76 % 1012,1 hPa 0,0 l/m 0 min 0 min 0,5 UV-I 197 W/m 15,4 km/h (3 Bft)
08.05.2014 14:20 13,4 C 12,8 C 75 % 1012,1 hPa 0,0 l/m 0 min 0 min 1,1 UV-I 311 W/m 15,4 km/h (3 Bft)
08.05.2014 14:22 13,5 C 13,3 C 75 % 1012,0 hPa 0,0 l/m 0 min 0 min 0,9 UV-I 264 W/m 20,6 km/h (4 Bft)
08.05.2014 14:24 13,6 C 13,3 C 75 % 1012,0 hPa 0,0 l/m 0 min 0 min 0,6 UV-I 230 W/m 10,3 km/h (2 Bft)
08.05.2014 14:26 13,7 C 13,3 C 75 % 1011,9 hPa 0,0 l/m 0 min 0 min 0,6 UV-I 237 W/m 30,9 km/h (5 Bft)
08.05.2014 14:28 13,7 C 13,3 C 75 % 1011,9 hPa 0,0 l/m 0 min 0 min 0,7 UV-I 244 W/m 10,3 km/h (2 Bft)
08.05.2014 14:30 13,7 C 13,3 C 75 % 1012,0 hPa 0,0 l/m 0 min 0 min 0,6 UV-I 229 W/m 20,6 km/h (4 Bft)
08.05.2014 14:32 13,7 C 13,3 C 75 % 1012,0 hPa 0,0 l/m 0 min 0 min 0,0 UV-I 134 W/m 20,6 km/h (4 Bft)
08.05.2014 14:34 13,7 C 12,8 C 74 % 1012,0 hPa 0,0 l/m 0 min 2 min 0,0 UV-I 109 W/m 10,3 km/h (2 Bft)
08.05.2014 14:36 13,6 C 12,8 C 75 % 1012,1 hPa 0,0 l/m 0 min 2 min 0,0 UV-I 102 W/m 10,3 km/h (2 Bft)
08.05.2014 14:38 13,5 C 12,8 C 75 % 1012,0 hPa 0,0 l/m 0 min 0 min 0,0 UV-I 111 W/m 18,0 km/h (3 Bft)
08.05.2014 14:40 13,4 C 12,2 C 75 % 1012,0 hPa 0,0 l/m 0 min 0 min 0,0 UV-I 121 W/m 18,0 km/h (3 Bft)
08.05.2014 14:42 13,3 C 12,2 C 76 % 1011,9 hPa 0,0 l/m 0 min 0 min 0,0 UV-I 116 W/m 25,7 km/h (4 Bft)
08.05.2014 14:44 13,3 C 12,2 C 76 % 1011,9 hPa 0,0 l/m 0 min 0 min 0,0 UV-I 156 W/m 20,6 km/h (4 Bft)
08.05.2014 14:46 13,3 C 12,2 C 76 % 1012,0 hPa 0,0 l/m 0 min 0 min 0,0 UV-I 162 W/m 10,3 km/h (2 Bft)
08.05.2014 14:48 13,3 C 12,8 C 76 % 1011,9 hPa 0,0 l/m 0 min 0 min 0,0 UV-I 146 W/m 10,3 km/h (2 Bft)
08.05.2014 14:50 13,3 C 12,8 C 76 % 1012,0 hPa 0,0 l/m 0 min 0 min 0,0 UV-I 151 W/m 15,4 km/h (3 Bft)
08.05.2014 14:52 13,3 C 12,8 C 76 % 1012,0 hPa 0,0 l/m 0 min 0 min 0,0 UV-I 148 W/m 12,9 km/h (3 Bft)
08.05.2014 14:54 13,3 C 12,8 C 77 % 1012,0 hPa 0,0 l/m 0 min 0 min 0,0 UV-I 142 W/m 5,1 km/h (1 Bft)
08.05.2014 14:56 13,4 C 12,8 C 77 % 1011,9 hPa 0,0 l/m 0 min 0 min 0,0 UV-I 162 W/m 10,3 km/h (2 Bft)
08.05.2014 14:58 13,4 C 12,8 C 77 % 1012,1 hPa 0,0 l/m 0 min 0 min 0,0 UV-I 139 W/m 12,9 km/h (3 Bft)
08.05.2014 15:00 13,5 C 12,8 C 77 % 1012,0 hPa 0,0 l/m 0 min 0 min 0,0 UV-I 146 W/m 18,0 km/h (3 Bft)
08.05.2014 15:02 13,5 C 12,8 C 77 % 1011,9 hPa 0,0 l/m 0 min 0 min 0,0 UV-I 160 W/m 28,3 km/h (4 Bft)
08.05.2014 15:05 13,5 C 12,8 C 76 % 1011,8 hPa 0,0 l/m 0 min 0 min 0,0 UV-I 141 W/m 10,3 km/h (2 Bft)
08.05.2014 15:06 13,6 C 12,8 C 76 % 1011,8 hPa 0,0 l/m 0 min 0 min 0,0 UV-I 135 W/m 5,1 km/h (1 Bft)
08.05.2014 15:08 13,6 C 12,8 C 76 % 1011,8 hPa 0,0 l/m 0 min 0 min 0,0 UV-I 134 W/m 12,9 km/h (3 Bft)
08.05.2014 15:10 13,6 C 12,8 C 77 % 1011,8 hPa 0,0 l/m 0 min 0 min 0,0 UV-I 149 W/m 2,6 km/h (1 Bft)
08.05.2014 15:12 13,6 C 12,8 C 76 % 1011,8 hPa 0,0 l/m 0 min 0 min 0,0 UV-I 134 W/m 18,0 km/h (3 Bft)
08.05.2014 15:14 13,6 C 12,8 C 77 % 1011,8 hPa 0,0 l/m 0 min 0 min 0,0 UV-I 127 W/m 18,0 km/h (3 Bft)
08.05.2014 15:16 13,7 C 12,8 C 77 % 1011,8 hPa 0,0 l/m 0 min 0 min 0,0 UV-I 79 W/m 15,4 km/h (3 Bft)
08.05.2014 15:18 13,7 C 12,8 C 76 % 1011,8 hPa 0,0 l/m 0 min 0 min 0,0 UV-I 51 W/m 15,4 km/h (3 Bft)
08.05.2014 15:20 13,6 C 12,2 C 76 % 1011,9 hPa 0,0 l/m 0 min 2 min 0,0 UV-I 35 W/m 10,3 km/h (2 Bft)
08.05.2014 15:22 13,6 C 12,2 C 76 % 1011,9 hPa 0,0 l/m 0 min 2 min 0,0 UV-I 32 W/m 18,0 km/h (3 Bft)
08.05.2014 15:24 13,5 C 12,2 C 77 % 1011,9 hPa 0,0 l/m 0 min 0 min 0,0 UV-I 37 W/m 10,3 km/h (2 Bft)
08.05.2014 15:26 13,4 C 11,7 C 77 % 1012,0 hPa 0,0 l/m 0 min 2 min 0,0 UV-I 49 W/m 15,4 km/h (3 Bft)
08.05.2014 15:28 13,4 C 11,7 C 78 % 1011,9 hPa 0,0 l/m 0 min 2 min 0,0 UV-I 62 W/m 30,9 km/h (5 Bft)
08.05.2014 15:30 13,3 C 11,1 C 78 % 1011,9 hPa 0,0 l/m 0 min 2 min 0,0 UV-I 74 W/m 23,2 km/h (4 Bft)
08.05.2014 15:32 13,2 C 10,6 C 79 % 1011,9 hPa 0,0 l/m 0 min 2 min 0,0 UV-I 70 W/m 10,3 km/h (2 Bft)
08.05.2014 15:34 13,1 C 10,6 C 80 % 1011,9 hPa 0,0 l/m 0 min 2 min 0,0 UV-I 70 W/m 5,1 km/h (1 Bft)
08.05.2014 15:36 12,9 C 10,0 C 81 % 1011,9 hPa 0,0 l/m 0 min 2 min 0,0 UV-I 72 W/m 7,7 km/h (2 Bft)
08.05.2014 15:38 12,8 C 10,6 C 82 % 1011,9 hPa 0,2 l/m 0 min 2 min 0,0 UV-I 83 W/m 5,1 km/h (1 Bft)
08.05.2014 15:40 12,7 C 10,0 C 83 % 1012,0 hPa 0,0 l/m 0 min 2 min 0,0 UV-I 93 W/m 7,7 km/h (2 Bft)
08.05.2014 15:42 12,7 C 10,6 C 83 % 1011,8 hPa 0,0 l/m 0 min 2 min 0,0 UV-I 97 W/m 0,0 km/h (0 Bft)
08.05.2014 15:44 12,6 C 10,0 C 83 % 1011,8 hPa 0,0 l/m 0 min 2 min 0,0 UV-I 98 W/m 10,3 km/h (2 Bft)
08.05.2014 15:46 12,6 C 10,0 C 83 % 1011,9 hPa 0,0 l/m 0 min 2 min 0,0 UV-I 123 W/m 10,3 km/h (2 Bft)
08.05.2014 15:48 12,6 C 10,0 C 84 % 1011,9 hPa 0,0 l/m 0 min 2 min 0,0 UV-I 111 W/m 0,0 km/h (0 Bft)
08.05.2014 15:50 12,5 C 10,6 C 85 % 1011,9 hPa 0,0 l/m 0 min 2 min 0,0 UV-I 105 W/m 15,4 km/h (3 Bft)
08.05.2014 15:52 12,4 C 10,6 C 86 % 1012,1 hPa 0,0 l/m 0 min 2 min 0,0 UV-I 127 W/m 25,7 km/h (4 Bft)
08.05.2014 15:54 12,3 C 10,0 C 85 % 1012,0 hPa 0,0 l/m 0 min 2 min 0,0 UV-I 120 W/m 28,3 km/h (4 Bft)
08.05.2014 15:56 12,3 C 10,0 C 85 % 1012,0 hPa 0,0 l/m 0 min 2 min 0,0 UV-I 113 W/m 23,2 km/h (4 Bft)
08.05.2014 15:58 12,2 C 10,0 C 85 % 1011,9 hPa 0,0 l/m 0 min 2 min 0,0 UV-I 104 W/m 10,3 km/h (2 Bft)
08.05.2014 16:00 12,2 C 10,0 C 86 % 1012,0 hPa 0,0 l/m 0 min 2 min 0,0 UV-I 100 W/m 10,3 km/h (2 Bft)
08.05.2014 16:02 12,2 C 10,0 C 86 % 1011,8 hPa 0,0 l/m 0 min 2 min 0,0 UV-I 86 W/m 7,7 km/h (2 Bft)
08.05.2014 16:05 12,1 C 10,6 C 87 % 1011,8 hPa 0,2 l/m 0 min 2 min 0,0 UV-I 91 W/m 10,3 km/h (2 Bft)
08.05.2014 16:06 12,1 C 10,0 C 87 % 1011,8 hPa 0,0 l/m 0 min 1 min 0,0 UV-I 91 W/m 5,1 km/h (1 Bft)
08.05.2014 16:08 12,0 C 10,0 C 87 % 1011,8 hPa 0,0 l/m 0 min 2 min 0,0 UV-I 116 W/m 2,6 km/h (1 Bft)
08.05.2014 16:10 12,0 C 10,0 C 87 % 1011,6 hPa 0,0 l/m 0 min 2 min 0,0 UV-I 120 W/m 12,9 km/h (3 Bft)
08.05.2014 16:12 12,0 C 10,0 C 88 % 1011,6 hPa 0,0 l/m 0 min 2 min 0,0 UV-I 128 W/m 2,6 km/h (1 Bft)
08.05.2014 16:14 12,0 C 10,6 C 89 % 1011,5 hPa 0,0 l/m 0 min 2 min 0,0 UV-I 141 W/m 10,3 km/h (2 Bft)
08.05.2014 16:16 11,9 C 10,6 C 89 % 1011,4 hPa 0,0 l/m 0 min 2 min 0,0 UV-I 160 W/m 10,3 km/h (2 Bft)
08.05.2014 16:18 12,0 C 10,6 C 89 % 1011,3 hPa 0,0 l/m 0 min 2 min 0,0 UV-I 190 W/m 7,7 km/h (2 Bft)
08.05.2014 16:20 12,1 C 11,1 C 90 % 1011,3 hPa 0,2 l/m 0 min 2 min 0,0 UV-I 185 W/m 5,1 km/h (1 Bft)
08.05.2014 16:22 12,1 C 11,1 C 90 % 1011,2 hPa 0,0 l/m 0 min 2 min 0,0 UV-I 186 W/m 2,6 km/h (1 Bft)
08.05.2014 16:24 12,2 C 11,1 C 90 % 1011,2 hPa 0,0 l/m 0 min 2 min 0,0 UV-I 193 W/m 7,7 km/h (2 Bft)
08.05.2014 16:26 12,1 C 11,1 C 90 % 1011,2 hPa 0,0 l/m 0 min 2 min 0,0 UV-I 181 W/m 12,9 km/h (3 Bft)
08.05.2014 16:28 12,1 C 10,6 C 90 % 1011,1 hPa 0,0 l/m 0 min 2 min 0,0 UV-I 151 W/m 10,3 km/h (2 Bft)
08.05.2014 16:30 12,1 C 10,6 C 90 % 1011,1 hPa 0,0 l/m 0 min 2 min 0,0 UV-I 137 W/m 12,9 km/h (3 Bft)
08.05.2014 16:32 12,1 C 10,6 C 90 % 1011,0 hPa 0,0 l/m 0 min 2 min 0,0 UV-I 137 W/m 5,1 km/h (1 Bft)
08.05.2014 16:34 12,1 C 10,6 C 90 % 1011,0 hPa 0,0 l/m 0 min 2 min 0,0 UV-I 125 W/m 7,7 km/h (2 Bft)
08.05.2014 16:36 12,1 C 10,6 C 90 % 1011,0 hPa 0,0 l/m 0 min 2 min 0,0 UV-I 128 W/m 10,3 km/h (2 Bft)
08.05.2014 16:38 12,1 C 10,6 C 90 % 1010,9 hPa 0,0 l/m 0 min 2 min 0,0 UV-I 176 W/m 2,6 km/h (1 Bft)
08.05.2014 16:40 12,2 C 11,1 C 91 % 1010,9 hPa 0,0 l/m 0 min 2 min 0,0 UV-I 197 W/m 10,3 km/h (2 Bft)
08.05.2014 16:42 12,2 C 11,1 C 91 % 1010,9 hPa 0,0 l/m 0 min 2 min 0,0 UV-I 167 W/m 7,7 km/h (2 Bft)
08.05.2014 16:44 12,2 C 11,1 C 91 % 1010,8 hPa 0,0 l/m 0 min 2 min 0,0 UV-I 169 W/m 2,6 km/h (1 Bft)
08.05.2014 16:46 12,3 C 11,1 C 91 % 1010,9 hPa 0,2 l/m 0 min 2 min 0,0 UV-I 156 W/m 10,3 km/h (2 Bft)
08.05.2014 16:48 12,3 C 11,1 C 91 % 1010,9 hPa 0,0 l/m 0 min 2 min 0,0 UV-I 160 W/m 18,0 km/h (3 Bft)
08.05.2014 16:50 12,2 C 10,6 C 90 % 1010,8 hPa 0,0 l/m 0 min 2 min 0,0 UV-I 163 W/m 12,9 km/h (3 Bft)
08.05.2014 16:52 12,2 C 11,1 C 90 % 1010,8 hPa 0,0 l/m 0 min 2 min 0,0 UV-I 149 W/m 7,7 km/h (2 Bft)
08.05.2014 16:54 12,2 C 10,6 C 90 % 1010,8 hPa 0,0 l/m 0 min 2 min 0,0 UV-I 144 W/m 18,0 km/h (3 Bft)
08.05.2014 16:56 12,2 C 10,6 C 90 % 1010,7 hPa 0,0 l/m 0 min 2 min 0,0 UV-I 160 W/m 10,3 km/h (2 Bft)
08.05.2014 16:58 12,2 C 10,6 C 90 % 1010,6 hPa 0,0 l/m 0 min 2 min 0,0 UV-I 142 W/m 15,4 km/h (3 Bft)
08.05.2014 17:00 12,2 C 10,6 C 90 % 1010,7 hPa 0,0 l/m 0 min 2 min 0,0 UV-I 142 W/m 12,9 km/h (3 Bft)
08.05.2014 17:02 12,3 C 11,1 C 90 % 1010,6 hPa 0,0 l/m 0 min 0 min 0,0 UV-I 155 W/m 12,9 km/h (3 Bft)
08.05.2014 17:05 12,3 C 10,6 C 90 % 1010,6 hPa 0,0 l/m 0 min 0 min 0,0 UV-I 144 W/m 20,6 km/h (4 Bft)
08.05.2014 17:06 12,3 C 10,6 C 90 % 1010,6 hPa 0,0 l/m 0 min 0 min 0,0 UV-I 132 W/m 15,4 km/h (3 Bft)
08.05.2014 17:08 12,3 C 10,6 C 90 % 1010,4 hPa 0,0 l/m 0 min 0 min 0,0 UV-I 128 W/m 18,0 km/h (3 Bft)
08.05.2014 17:10 12,3 C 10,6 C 90 % 1010,4 hPa 0,0 l/m 0 min 0 min 0,0 UV-I 139 W/m 12,9 km/h (3 Bft)
08.05.2014 17:12 12,3 C 10,6 C 90 % 1010,4 hPa 0,0 l/m 0 min 0 min 0,0 UV-I 146 W/m 15,4 km/h (3 Bft)
08.05.2014 17:14 12,3 C 10,6 C 90 % 1010,3 hPa 0,0 l/m 0 min 0 min 0,0 UV-I 156 W/m 10,3 km/h (2 Bft)
08.05.2014 17:16 12,3 C 10,6 C 89 % 1010,4 hPa 0,0 l/m 0 min 0 min 0,0 UV-I 130 W/m 10,3 km/h (2 Bft)
08.05.2014 17:18 12,4 C 10,6 C 89 % 1010,3 hPa 0,0 l/m 0 min 0 min 0,0 UV-I 135 W/m 10,3 km/h (2 Bft)
08.05.2014 17:20 12,4 C 10,6 C 89 % 1010,3 hPa 0,0 l/m 0 min 0 min 0,0 UV-I 130 W/m 10,3 km/h (2 Bft)
08.05.2014 17:22 12,4 C 10,6 C 89 % 1010,3 hPa 0,0 l/m 0 min 0 min 0,0 UV-I 102 W/m 12,9 km/h (3 Bft)
08.05.2014 17:24 12,4 C 10,6 C 89 % 1010,3 hPa 0,0 l/m 0 min 0 min 0,0 UV-I 91 W/m 5,1 km/h (1 Bft)
08.05.2014 17:26 12,4 C 10,6 C 89 % 1010,3 hPa 0,0 l/m 0 min 0 min 0,0 UV-I 98 W/m 18,0 km/h (3 Bft)
08.05.2014 17:28 12,4 C 10,6 C 89 % 1010,2 hPa 0,0 l/m 0 min 0 min 0,0 UV-I 102 W/m 12,9 km/h (3 Bft)
08.05.2014 17:30 12,4 C 10,6 C 89 % 1010,3 hPa 0,0 l/m 0 min 0 min 0,0 UV-I 100 W/m 15,4 km/h (3 Bft)
08.05.2014 17:32 12,5 C 10,6 C 89 % 1010,3 hPa 0,0 l/m 0 min 0 min 0,0 UV-I 95 W/m 12,9 km/h (3 Bft)
08.05.2014 17:34 12,4 C 10,6 C 89 % 1010,3 hPa 0,0 l/m 0 min 0 min 0,0 UV-I 98 W/m 18,0 km/h (3 Bft)
08.05.2014 17:36 12,4 C 10,6 C 89 % 1010,2 hPa 0,0 l/m 0 min 0 min 0,0 UV-I 98 W/m 15,4 km/h (3 Bft)
08.05.2014 17:38 12,4 C 10,6 C 89 % 1010,3 hPa 0,0 l/m 0 min 0 min 0,0 UV-I 81 W/m 10,3 km/h (2 Bft)
08.05.2014 17:40 12,4 C 10,6 C 88 % 1010,2 hPa 0,0 l/m 0 min 0 min 0,0 UV-I 67 W/m 12,9 km/h (3 Bft)
08.05.2014 17:42 12,4 C 10,6 C 88 % 1010,2 hPa 0,0 l/m 0 min 0 min 0,0 UV-I 62 W/m 12,9 km/h (3 Bft)
08.05.2014 17:44 12,4 C 10,6 C 88 % 1010,2 hPa 0,0 l/m 0 min 0 min 0,0 UV-I 67 W/m 12,9 km/h (3 Bft)
08.05.2014 17:46 12,4 C 10,6 C 88 % 1010,2 hPa 0,0 l/m 0 min 0 min 0,0 UV-I 90 W/m 12,9 km/h (3 Bft)
08.05.2014 17:48 12,4 C 10,6 C 88 % 1010,2 hPa 0,0 l/m 0 min 0 min 0,0 UV-I 77 W/m 15,4 km/h (3 Bft)
08.05.2014 17:50 12,4 C 10,6 C 88 % 1010,1 hPa 0,0 l/m 0 min 0 min 0,0 UV-I 72 W/m 15,4 km/h (3 Bft)
08.05.2014 17:52 12,4 C 10,6 C 88 % 1010,0 hPa 0,0 l/m 0 min 0 min 0,0 UV-I 60 W/m 12,9 km/h (3 Bft)
08.05.2014 17:54 12,4 C 10,6 C 88 % 1010,0 hPa 0,0 l/m 0 min 0 min 0,0 UV-I 58 W/m 18,0 km/h (3 Bft)
08.05.2014 17:56 12,4 C 10,6 C 88 % 1009,9 hPa 0,0 l/m 0 min 0 min 0,0 UV-I 56 W/m 10,3 km/h (2 Bft)
08.05.2014 17:58 12,5 C 10,6 C 88 % 1009,9 hPa 0,0 l/m 0 min 0 min 0,0 UV-I 53 W/m 12,9 km/h (3 Bft)
08.05.2014 18:00 12,5 C 10,6 C 88 % 1009,8 hPa 0,0 l/m 0 min 0 min 0,0 UV-I 42 W/m 7,7 km/h (2 Bft)
08.05.2014 18:02 12,5 C 10,6 C 88 % 1009,8 hPa 0,0 l/m 0 min 0 min 0,0 UV-I 42 W/m 20,6 km/h (4 Bft)
08.05.2014 18:05 12,4 C 10,6 C 88 % 1009,6 hPa 0,0 l/m 0 min 0 min 0,0 UV-I 44 W/m 10,3 km/h (2 Bft)
08.05.2014 18:06 12,4 C 10,6 C 88 % 1009,6 hPa 0,0 l/m 0 min 0 min 0,0 UV-I 47 W/m 0,0 km/h (0 Bft)
08.05.2014 18:08 12,4 C 10,6 C 88 % 1009,7 hPa 0,0 l/m 0 min 0 min 0,0 UV-I 49 W/m 10,3 km/h (2 Bft)
08.05.2014 18:10 12,4 C 10,6 C 88 % 1009,7 hPa 0,0 l/m 0 min 0 min 0,0 UV-I 51 W/m 20,6 km/h (4 Bft)
08.05.2014 18:12 12,4 C 10,0 C 88 % 1009,5 hPa 0,0 l/m 0 min 2 min 0,0 UV-I 53 W/m 18,0 km/h (3 Bft)
08.05.2014 18:14 12,4 C 10,6 C 89 % 1009,6 hPa 0,0 l/m 0 min 2 min 0,0 UV-I 56 W/m 18,0 km/h (3 Bft)
08.05.2014 18:16 12,3 C 10,0 C 89 % 1009,7 hPa 0,0 l/m 0 min 2 min 0,0 UV-I 40 W/m 28,3 km/h (4 Bft)
08.05.2014 18:18 12,2 C 10,0 C 89 % 1009,6 hPa 0,0 l/m 0 min 2 min 0,0 UV-I 51 W/m 20,6 km/h (4 Bft)
08.05.2014 18:20 12,2 C 10,0 C 90 % 1009,5 hPa 0,0 l/m 0 min 2 min 0,0 UV-I 47 W/m 10,3 km/h (2 Bft)
08.05.2014 18:22 12,1 C 10,0 C 90 % 1009,5 hPa 0,0 l/m 0 min 2 min 0,0 UV-I 51 W/m 18,0 km/h (3 Bft)
08.05.2014 18:24 12,0 C 10,0 C 91 % 1009,5 hPa 0,0 l/m 0 min 2 min 0,0 UV-I 58 W/m 5,1 km/h (1 Bft)
08.05.2014 18:26 11,9 C 10,0 C 91 % 1009,5 hPa 0,0 l/m 0 min 2 min 0,0 UV-I 44 W/m 15,4 km/h (3 Bft)
08.05.2014 18:28 11,9 C 10,0 C 91 % 1009,5 hPa 0,0 l/m 0 min 2 min 0,0 UV-I 62 W/m 7,7 km/h (2 Bft)
08.05.2014 18:30 11,8 C 10,0 C 92 % 1009,4 hPa 0,0 l/m 0 min 2 min 0,0 UV-I 69 W/m 10,3 km/h (2 Bft)
08.05.2014 18:32 11,8 C 10,6 C 92 % 1009,4 hPa 0,0 l/m 0 min 2 min 0,0 UV-I 53 W/m 7,7 km/h (2 Bft)
08.05.2014 18:34 11,8 C 10,6 C 92 % 1009,4 hPa 0,0 l/m 0 min 2 min 0,0 UV-I 51 W/m 0,0 km/h (0 Bft)
08.05.2014 18:36 11,8 C 10,6 C 93 % 1009,3 hPa 0,0 l/m 0 min 0 min 0,0 UV-I 65 W/m 12,9 km/h (3 Bft)
08.05.2014 18:38 11,9 C 10,6 C 93 % 1009,2 hPa 0,0 l/m 0 min 2 min 0,0 UV-I 77 W/m 10,3 km/h (2 Bft)
08.05.2014 18:40 11,8 C 10,6 C 93 % 1009,1 hPa 0,0 l/m 0 min 0 min 0,0 UV-I 62 W/m 7,7 km/h (2 Bft)
08.05.2014 18:42 11,9 C 10,6 C 93 % 1009,0 hPa 0,0 l/m 0 min 0 min 0,0 UV-I 49 W/m 18,0 km/h (3 Bft)
08.05.2014 18:44 11,8 C 10,6 C 94 % 1009,0 hPa 0,0 l/m 0 min 0 min 0,0 UV-I 44 W/m 15,4 km/h (3 Bft)
08.05.2014 18:46 11,8 C 10,6 C 94 % 1009,0 hPa 0,0 l/m 0 min 0 min 0,0 UV-I 44 W/m 7,7 km/h (2 Bft)
08.05.2014 18:48 11,8 C 10,6 C 94 % 1008,9 hPa 0,0 l/m 0 min 0 min 0,0 UV-I 39 W/m 15,4 km/h (3 Bft)
08.05.2014 18:50 11,8 C 10,6 C 94 % 1009,0 hPa 0,0 l/m 0 min 0 min 0,0 UV-I 33 W/m 10,3 km/h (2 Bft)
08.05.2014 18:52 11,8 C 10,6 C 94 % 1008,9 hPa 0,0 l/m 0 min 0 min 0,0 UV-I 37 W/m 7,7 km/h (2 Bft)
08.05.2014 18:54 11,8 C 10,6 C 94 % 1008,9 hPa 0,0 l/m 0 min 0 min 0,0 UV-I 30 W/m 0,0 km/h (0 Bft)
08.05.2014 18:56 11,9 C 10,6 C 94 % 1008,8 hPa 0,0 l/m 0 min 0 min 0,0 UV-I 26 W/m 12,9 km/h (3 Bft)
08.05.2014 18:58 11,8 C 10,6 C 94 % 1008,7 hPa 0,0 l/m 0 min 0 min 0,0 UV-I 33 W/m 12,9 km/h (3 Bft)
08.05.2014 19:00 11,8 C 10,6 C 94 % 1008,6 hPa 0,0 l/m 0 min 0 min 0,0 UV-I 47 W/m 15,4 km/h (3 Bft)
08.05.2014 19:02 11,8 C 10,6 C 94 % 1008,6 hPa 0,0 l/m 0 min 0 min 0,0 UV-I 49 W/m 10,3 km/h (2 Bft)
08.05.2014 19:05 11,8 C 10,6 C 94 % 1008,5 hPa 0,0 l/m 0 min 0 min 0,0 UV-I 42 W/m 20,6 km/h (4 Bft)
08.05.2014 19:06 11,8 C 10,6 C 94 % 1008,5 hPa 0,0 l/m 0 min 0 min 0,0 UV-I 40 W/m 7,7 km/h (2 Bft)
08.05.2014 19:08 11,9 C 10,6 C 94 % 1008,4 hPa 0,0 l/m 0 min 0 min 0,0 UV-I 35 W/m 7,7 km/h (2 Bft)
08.05.2014 19:10 11,9 C 10,6 C 94 % 1008,4 hPa 0,0 l/m 0 min 0 min 0,0 UV-I 33 W/m 7,7 km/h (2 Bft)
08.05.2014 19:12 11,9 C 10,6 C 94 % 1008,5 hPa 0,0 l/m 0 min 0 min 0,0 UV-I 33 W/m 12,9 km/h (3 Bft)
08.05.2014 19:14 11,9 C 10,6 C 94 % 1008,4 hPa 0,0 l/m 0 min 0 min 0,0 UV-I 33 W/m 15,4 km/h (3 Bft)
08.05.2014 19:16 11,9 C 10,6 C 93 % 1008,3 hPa 0,0 l/m 0 min 0 min 0,0 UV-I 33 W/m 15,4 km/h (3 Bft)
08.05.2014 19:18 11,9 C 10,6 C 93 % 1008,3 hPa 0,0 l/m 0 min 0 min 0,0 UV-I 26 W/m 20,6 km/h (4 Bft)
08.05.2014 19:20 11,9 C 10,6 C 93 % 1008,3 hPa 0,0 l/m 0 min 0 min 0,0 UV-I 26 W/m 5,1 km/h (1 Bft)
08.05.2014 19:22 11,9 C 10,6 C 94 % 1008,2 hPa 0,0 l/m 0 min 0 min 0,0 UV-I 23 W/m 20,6 km/h (4 Bft)
08.05.2014 19:24 11,9 C 10,0 C 93 % 1008,2 hPa 0,0 l/m 0 min 0 min 0,0 UV-I 19 W/m 15,4 km/h (3 Bft)
08.05.2014 19:26 11,9 C 10,0 C 93 % 1008,0 hPa 0,0 l/m 0 min 0 min 0,0 UV-I 23 W/m 12,9 km/h (3 Bft)
08.05.2014 19:28 12,0 C 10,0 C 93 % 1007,9 hPa 0,0 l/m 0 min 2 min 0,0 UV-I 16 W/m 20,6 km/h (4 Bft)
08.05.2014 19:30 12,0 C 10,6 C 93 % 1007,9 hPa 0,0 l/m 0 min 2 min 0,0 UV-I 14 W/m 18,0 km/h (3 Bft)
08.05.2014 19:32 12,0 C 10,0 C 93 % 1008,0 hPa 0,0 l/m 0 min 0 min 0,0 UV-I 11 W/m 12,9 km/h (3 Bft)
08.05.2014 19:34 12,0 C 10,6 C 93 % 1008,1 hPa 0,0 l/m 0 min 0 min 0,0 UV-I 9 W/m 10,3 km/h (2 Bft)
08.05.2014 19:36 12,0 C 10,0 C 93 % 1008,0 hPa 0,0 l/m 0 min 0 min 0,0 UV-I 9 W/m 12,9 km/h (3 Bft)
08.05.2014 19:38 12,0 C 10,0 C 93 % 1008,1 hPa 0,0 l/m 0 min 0 min 0,0 UV-I 7 W/m 18,0 km/h (3 Bft)
08.05.2014 19:40 12,0 C 10,6 C 93 % 1008,1 hPa 0,0 l/m 0 min 0 min 0,0 UV-I 7 W/m 7,7 km/h (2 Bft)
08.05.2014 19:42 12,0 C 10,0 C 93 % 1008,0 hPa 0,0 l/m 0 min 2 min 0,0 UV-I 5 W/m 5,1 km/h (1 Bft)
08.05.2014 19:44 12,0 C 10,0 C 93 % 1008,1 hPa 0,0 l/m 0 min 2 min 0,0 UV-I 5 W/m 18,0 km/h (3 Bft)
08.05.2014 19:46 12,0 C 10,0 C 93 % 1007,9 hPa 0,2 l/m 0 min 2 min 0,0 UV-I 5 W/m 10,3 km/h (2 Bft)
08.05.2014 19:48 11,9 C 10,0 C 93 % 1007,8 hPa 0,2 l/m 0 min 2 min 0,0 UV-I 5 W/m 25,7 km/h (4 Bft)
08.05.2014 19:50 11,9 C 10,0 C 93 % 1007,8 hPa 0,2 l/m 0 min 2 min 0,0 UV-I 5 W/m 7,7 km/h (2 Bft)
08.05.2014 19:52 11,9 C 10,0 C 93 % 1007,8 hPa 0,2 l/m 0 min 2 min 0,0 UV-I 5 W/m 7,7 km/h (2 Bft)
08.05.2014 19:54 11,9 C 10,0 C 94 % 1007,8 hPa 0,4 l/m 0 min 2 min 0,0 UV-I 5 W/m 10,3 km/h (2 Bft)
08.05.2014 19:56 11,8 C 10,0 C 94 % 1007,8 hPa 0,2 l/m 0 min 2 min 0,0 UV-I 5 W/m 10,3 km/h (2 Bft)
08.05.2014 19:58 11,8 C 10,0 C 94 % 1007,7 hPa 0,2 l/m 0 min 2 min 0,0 UV-I 5 W/m 10,3 km/h (2 Bft)
08.05.2014 20:00 11,8 C 10,0 C 94 % 1007,7 hPa 0,2 l/m 0 min 2 min 0,0 UV-I 7 W/m 7,7 km/h (2 Bft)
08.05.2014 20:02 11,8 C 10,0 C 94 % 1007,7 hPa 0,2 l/m 0 min 2 min 0,0 UV-I 7 W/m 18,0 km/h (3 Bft)
08.05.2014 20:05 11,7 C 10,0 C 94 % 1007,7 hPa 0,2 l/m 0 min 2 min 0,0 UV-I 7 W/m 10,3 km/h (2 Bft)
08.05.2014 20:06 11,7 C 10,0 C 94 % 1007,7 hPa 0,2 l/m 0 min 1 min 0,0 UV-I 7 W/m 10,3 km/h (2 Bft)
08.05.2014 20:08 11,7 C 10,0 C 95 % 1007,7 hPa 0,0 l/m 0 min 2 min 0,0 UV-I 9 W/m 7,7 km/h (2 Bft)
08.05.2014 20:10 11,7 C 10,0 C 95 % 1007,7 hPa 0,2 l/m 0 min 2 min 0,0 UV-I 12 W/m 0,0 km/h (0 Bft)
08.05.2014 20:12 11,7 C 10,0 C 95 % 1007,7 hPa 0,2 l/m 0 min 2 min 0,0 UV-I 11 W/m 12,9 km/h (3 Bft)
08.05.2014 20:14 11,7 C 10,0 C 95 % 1007,7 hPa 0,0 l/m 0 min 2 min 0,0 UV-I 7 W/m 2,6 km/h (1 Bft)
08.05.2014 20:16 11,7 C 10,6 C 95 % 1007,6 hPa 0,0 l/m 0 min 2 min 0,0 UV-I 5 W/m 18,0 km/h (3 Bft)
08.05.2014 20:18 11,7 C 10,6 C 95 % 1007,7 hPa 0,0 l/m 0 min 2 min 0,0 UV-I 5 W/m 7,7 km/h (2 Bft)
08.05.2014 20:20 11,7 C 10,0 C 95 % 1007,7 hPa 0,0 l/m 0 min 2 min 0,0 UV-I 5 W/m 20,6 km/h (4 Bft)
08.05.2014 20:22 11,7 C 10,6 C 95 % 1007,7 hPa 0,0 l/m 0 min 2 min 0,0 UV-I 5 W/m 2,6 km/h (1 Bft)
08.05.2014 20:24 11,7 C 10,6 C 96 % 1007,6 hPa 0,2 l/m 0 min 2 min 0,0 UV-I 5 W/m 18,0 km/h (3 Bft)
08.05.2014 20:26 11,7 C 10,0 C 96 % 1007,7 hPa 0,4 l/m 0 min 2 min 0,0 UV-I 7 W/m 18,0 km/h (3 Bft)
08.05.2014 20:28 11,7 C 10,0 C 96 % 1007,6 hPa 0,4 l/m 0 min 2 min 0,0 UV-I 5 W/m 0,0 km/h (0 Bft)
08.05.2014 20:30 11,7 C 10,0 C 96 % 1007,8 hPa 0,2 l/m 0 min 2 min 0,0 UV-I 5 W/m 12,9 km/h (3 Bft)
08.05.2014 20:32 11,6 C 10,6 C 96 % 1007,7 hPa 0,0 l/m 0 min 2 min 0,0 UV-I 5 W/m 2,6 km/h (1 Bft)
08.05.2014 20:34 11,6 C 10,6 C 96 % 1007,6 hPa 0,4 l/m 0 min 2 min 0,0 UV-I 0 W/m 7,7 km/h (2 Bft)
08.05.2014 20:36 11,7 C 10,6 C 96 % 1007,5 hPa 0,2 l/m 0 min 2 min 0,0 UV-I 5 W/m 7,7 km/h (2 Bft)
08.05.2014 20:38 11,6 C 10,6 C 96 % 1007,5 hPa 0,2 l/m 0 min 2 min 0,0 UV-I 5 W/m 10,3 km/h (2 Bft)
08.05.2014 20:40 11,6 C 10,6 C 96 % 1007,4 hPa 0,2 l/m 0 min 2 min 0,0 UV-I 5 W/m 15,4 km/h (3 Bft)
08.05.2014 20:42 11,6 C 10,6 C 96 % 1007,3 hPa 0,0 l/m 0 min 2 min 0,0 UV-I 5 W/m 7,7 km/h (2 Bft)
08.05.2014 20:44 11,6 C 10,6 C 96 % 1007,3 hPa 0,0 l/m 0 min 2 min 0,0 UV-I 5 W/m 12,9 km/h (3 Bft)
08.05.2014 20:46 11,6 C 10,6 C 96 % 1007,2 hPa 0,0 l/m 0 min 2 min 0,0 UV-I 5 W/m 7,7 km/h (2 Bft)
08.05.2014 20:48 11,6 C 10,6 C 96 % 1007,1 hPa 0,2 l/m 0 min 2 min 0,0 UV-I 0 W/m 10,3 km/h (2 Bft)
08.05.2014 20:50 11,6 C 10,6 C 96 % 1007,1 hPa 0,0 l/m 0 min 2 min 0,0 UV-I 0 W/m 12,9 km/h (3 Bft)
08.05.2014 20:52 11,6 C 10,6 C 96 % 1007,0 hPa 0,0 l/m 0 min 2 min 0,0 UV-I 0 W/m 7,7 km/h (2 Bft)
08.05.2014 20:54 11,6 C 10,6 C 96 % 1006,9 hPa 0,0 l/m 0 min 2 min 0,0 UV-I 0 W/m 7,7 km/h (2 Bft)
08.05.2014 20:56 11,6 C 10,6 C 96 % 1006,9 hPa 0,0 l/m 0 min 2 min 0,0 UV-I 0 W/m 15,4 km/h (3 Bft)
08.05.2014 20:58 11,6 C 10,6 C 96 % 1006,9 hPa 0,0 l/m 0 min 2 min 0,0 UV-I 0 W/m 18,0 km/h (3 Bft)
08.05.2014 21:00 11,6 C 10,6 C 97 % 1006,9 hPa 0,2 l/m 0 min 2 min 0,0 UV-I 0 W/m 15,4 km/h (3 Bft)
08.05.2014 21:02 11,6 C 10,6 C 97 % 1006,8 hPa 0,0 l/m 0 min 2 min 0,0 UV-I 0 W/m 0,0 km/h (0 Bft)
08.05.2014 21:05 11,6 C 10,6 C 97 % 1006,7 hPa 0,0 l/m 0 min 2 min 0,0 UV-I 0 W/m 5,1 km/h (1 Bft)
08.05.2014 21:06 11,6 C 10,6 C 97 % 1006,7 hPa 0,0 l/m 0 min 1 min 0,0 UV-I 0 W/m 15,4 km/h (3 Bft)
08.05.2014 21:08 11,7 C 10,6 C 97 % 1006,7 hPa 0,0 l/m 0 min 2 min 0,0 UV-I 0 W/m 23,2 km/h (4 Bft)
08.05.2014 21:10 11,7 C 10,6 C 97 % 1006,8 hPa 0,2 l/m 0 min 2 min 0,0 UV-I 0 W/m 12,9 km/h (3 Bft)
08.05.2014 21:12 11,7 C 10,6 C 97 % 1006,9 hPa 0,0 l/m 0 min 0 min 0,0 UV-I 0 W/m 15,4 km/h (3 Bft)
08.05.2014 21:14 11,7 C 10,6 C 97 % 1006,7 hPa 0,0 l/m 0 min 0 min 0,0 UV-I 0 W/m 18,0 km/h (3 Bft)
08.05.2014 21:16 11,7 C 10,6 C 97 % 1006,7 hPa 0,0 l/m 0 min 0 min 0,0 UV-I 0 W/m 15,4 km/h (3 Bft)
08.05.2014 21:18 11,7 C 10,6 C 97 % 1006,7 hPa 0,0 l/m 0 min 2 min 0,0 UV-I 0 W/m 18,0 km/h (3 Bft)
08.05.2014 21:20 11,7 C 10,6 C 97 % 1006,7 hPa 0,0 l/m 0 min 2 min 0,0 UV-I 0 W/m 23,2 km/h (4 Bft)
08.05.2014 21:22 11,8 C 10,6 C 97 % 1006,7 hPa 0,0 l/m 0 min 2 min 0,0 UV-I 0 W/m 10,3 km/h (2 Bft)
08.05.2014 21:24 11,8 C 10,6 C 97 % 1006,8 hPa 0,0 l/m 0 min 2 min 0,0 UV-I 0 W/m 7,7 km/h (2 Bft)
08.05.2014 21:26 11,8 C 10,6 C 97 % 1006,8 hPa 0,0 l/m 0 min 2 min 0,0 UV-I 0 W/m 10,3 km/h (2 Bft)
08.05.2014 21:28 11,8 C 10,6 C 97 % 1006,7 hPa 0,0 l/m 0 min 2 min 0,0 UV-I 0 W/m 12,9 km/h (3 Bft)
08.05.2014 21:30 11,8 C 10,6 C 97 % 1006,7 hPa 0,2 l/m 0 min 2 min 0,0 UV-I 0 W/m 10,3 km/h (2 Bft)
08.05.2014 21:32 11,8 C 10,6 C 97 % 1006,7 hPa 0,0 l/m 0 min 2 min 0,0 UV-I 0 W/m 12,9 km/h (3 Bft)
08.05.2014 21:34 11,8 C 10,6 C 97 % 1006,7 hPa 0,0 l/m 0 min 2 min 0,0 UV-I 0 W/m 28,3 km/h (4 Bft)
08.05.2014 21:36 11,9 C 10,6 C 97 % 1006,6 hPa 0,0 l/m 0 min 2 min 0,0 UV-I 0 W/m 15,4 km/h (3 Bft)
08.05.2014 21:38 11,9 C 10,6 C 97 % 1006,5 hPa 0,0 l/m 0 min 2 min 0,0 UV-I 0 W/m 18,0 km/h (3 Bft)
08.05.2014 21:40 11,9 C 10,6 C 97 % 1006,5 hPa 0,0 l/m 0 min 2 min 0,0 UV-I 0 W/m 18,0 km/h (3 Bft)
08.05.2014 21:42 11,9 C 10,6 C 97 % 1006,4 hPa 0,2 l/m 0 min 2 min 0,0 UV-I 0 W/m 20,6 km/h (4 Bft)
08.05.2014 21:44 11,9 C 10,6 C 97 % 1006,4 hPa 0,0 l/m 0 min 2 min 0,0 UV-I 0 W/m 7,7 km/h (2 Bft)
08.05.2014 21:46 11,9 C 10,6 C 97 % 1006,3 hPa 0,0 l/m 0 min 2 min 0,0 UV-I 0 W/m 10,3 km/h (2 Bft)
08.05.2014 21:48 11,9 C 10,6 C 97 % 1006,4 hPa 0,0 l/m 0 min 2 min 0,0 UV-I 0 W/m 12,9 km/h (3 Bft)
08.05.2014 21:50 11,9 C 10,6 C 97 % 1006,2 hPa 0,0 l/m 0 min 2 min 0,0 UV-I 0 W/m 10,3 km/h (2 Bft)
08.05.2014 21:52 12,0 C 10,6 C 97 % 1006,2 hPa 0,0 l/m 0 min 2 min 0,0 UV-I 0 W/m 23,2 km/h (4 Bft)
08.05.2014 21:54 12,0 C 10,6 C 97 % 1006,2 hPa 0,2 l/m 0 min 2 min 0,0 UV-I 0 W/m 10,3 km/h (2 Bft)
08.05.2014 21:56 12,0 C 10,6 C 97 % 1006,2 hPa 0,0 l/m 0 min 2 min 0,0 UV-I 0 W/m 7,7 km/h (2 Bft)
08.05.2014 21:58 12,1 C 10,6 C 97 % 1006,2 hPa 0,0 l/m 0 min 2 min 0,0 UV-I 0 W/m 15,4 km/h (3 Bft)
08.05.2014 22:00 12,1 C 10,6 C 97 % 1006,2 hPa 0,2 l/m 0 min 2 min 0,0 UV-I 0 W/m 15,4 km/h (3 Bft)
08.05.2014 22:02 12,1 C 10,6 C 97 % 1006,1 hPa 0,0 l/m 0 min 2 min 0,0 UV-I 0 W/m 12,9 km/h (3 Bft)
08.05.2014 22:05 12,2 C 10,6 C 97 % 1005,9 hPa 0,0 l/m 0 min 2 min 0,0 UV-I 0 W/m 23,2 km/h (4 Bft)
08.05.2014 22:06 12,2 C 11,1 C 97 % 1005,9 hPa 0,0 l/m 0 min 1 min 0,0 UV-I 0 W/m 7,7 km/h (2 Bft)
08.05.2014 22:08 12,2 C 11,1 C 97 % 1006,0 hPa 0,0 l/m 0 min 0 min 0,0 UV-I 0 W/m 25,7 km/h (4 Bft)
08.05.2014 22:10 12,3 C 11,1 C 97 % 1006,1 hPa 0,0 l/m 0 min 0 min 0,0 UV-I 0 W/m 25,7 km/h (4 Bft)
08.05.2014 22:12 12,3 C 11,1 C 98 % 1005,9 hPa 0,0 l/m 0 min 0 min 0,0 UV-I 0 W/m 15,4 km/h (3 Bft)
08.05.2014 22:14 12,3 C 11,1 C 98 % 1006,2 hPa 0,0 l/m 0 min 0 min 0,0 UV-I 0 W/m 15,4 km/h (3 Bft)
08.05.2014 22:16 12,4 C 11,1 C 98 % 1005,9 hPa 0,0 l/m 0 min 0 min 0,0 UV-I 0 W/m 23,2 km/h (4 Bft)
08.05.2014 22:18 12,4 C 11,1 C 98 % 1006,1 hPa 0,0 l/m 0 min 0 min 0,0 UV-I 0 W/m 7,7 km/h (2 Bft)
08.05.2014 22:20 12,4 C 11,1 C 98 % 1005,9 hPa 0,0 l/m 0 min 0 min 0,0 UV-I 0 W/m 15,4 km/h (3 Bft)
08.05.2014 22:22 12,4 C 11,1 C 98 % 1005,8 hPa 0,0 l/m 0 min 0 min 0,0 UV-I 0 W/m 23,2 km/h (4 Bft)
08.05.2014 22:24 12,5 C 11,1 C 98 % 1005,8 hPa 0,0 l/m 0 min 0 min 0,0 UV-I 0 W/m 28,3 km/h (4 Bft)
08.05.2014 22:26 12,5 C 11,1 C 98 % 1005,9 hPa 0,0 l/m 0 min 0 min 0,0 UV-I 0 W/m 25,7 km/h (4 Bft)
08.05.2014 22:28 12,6 C 11,1 C 98 % 1005,8 hPa 0,0 l/m 0 min 0 min 0,0 UV-I 0 W/m 18,0 km/h (3 Bft)
08.05.2014 22:30 12,6 C 11,1 C 98 % 1005,7 hPa 0,0 l/m 0 min 0 min 0,0 UV-I 0 W/m 12,9 km/h (3 Bft)
08.05.2014 22:32 12,6 C 11,1 C 97 % 1005,8 hPa 0,0 l/m 0 min 0 min 0,0 UV-I 0 W/m 23,2 km/h (4 Bft)
08.05.2014 22:34 12,7 C 11,1 C 97 % 1005,8 hPa 0,0 l/m 0 min 0 min 0,0 UV-I 0 W/m 15,4 km/h (3 Bft)
08.05.2014 22:36 12,7 C 11,1 C 98 % 1005,7 hPa 0,0 l/m 0 min 0 min 0,0 UV-I 0 W/m 18,0 km/h (3 Bft)
08.05.2014 22:38 12,7 C 11,1 C 98 % 1005,7 hPa 0,0 l/m 0 min 0 min 0,0 UV-I 0 W/m 23,2 km/h (4 Bft)
08.05.2014 22:40 12,8 C 11,1 C 98 % 1005,7 hPa 0,0 l/m 0 min 0 min 0,0 UV-I 0 W/m 15,4 km/h (3 Bft)
08.05.2014 22:42 12,8 C 11,1 C 98 % 1005,7 hPa 0,0 l/m 0 min 0 min 0,0 UV-I 0 W/m 23,2 km/h (4 Bft)
08.05.2014 22:44 12,8 C 11,1 C 97 % 1005,7 hPa 0,0 l/m 0 min 0 min 0,0 UV-I 0 W/m 23,2 km/h (4 Bft)
08.05.2014 22:46 12,8 C 11,1 C 97 % 1005,6 hPa 0,0 l/m 0 min 0 min 0,0 UV-I 0 W/m 23,2 km/h (4 Bft)
08.05.2014 22:48 12,8 C 11,1 C 97 % 1005,7 hPa 0,0 l/m 0 min 0 min 0,0 UV-I 0 W/m 12,9 km/h (3 Bft)
08.05.2014 22:50 12,9 C 11,1 C 97 % 1005,6 hPa 0,0 l/m 0 min 0 min 0,0 UV-I 0 W/m 18,0 km/h (3 Bft)
08.05.2014 22:52 12,9 C 11,1 C 97 % 1005,8 hPa 0,0 l/m 0 min 0 min 0,0 UV-I 0 W/m 15,4 km/h (3 Bft)
08.05.2014 22:54 12,9 C 11,1 C 97 % 1005,8 hPa 0,0 l/m 0 min 0 min 0,0 UV-I 0 W/m 36,0 km/h (5 Bft)
08.05.2014 22:56 12,9 C 11,1 C 97 % 1005,7 hPa 0,0 l/m 0 min 0 min 0,0 UV-I 0 W/m 18,0 km/h (3 Bft)
08.05.2014 22:58 13,0 C 11,1 C 97 % 1005,7 hPa 0,0 l/m 0 min 0 min 0,0 UV-I 0 W/m 18,0 km/h (3 Bft)
08.05.2014 23:00 13,0 C 11,1 C 97 % 1005,8 hPa 0,0 l/m 0 min 0 min 0,0 UV-I 0 W/m 43,8 km/h (6 Bft)
08.05.2014 23:02 13,0 C 11,1 C 97 % 1005,8 hPa 0,0 l/m 0 min 0 min 0,0 UV-I 0 W/m 18,0 km/h (3 Bft)
08.05.2014 23:05 13,1 C 11,7 C 97 % 1005,7 hPa 0,0 l/m 0 min 0 min 0,0 UV-I 0 W/m 20,6 km/h (4 Bft)
08.05.2014 23:06 13,1 C 11,7 C 97 % 1005,6 hPa 0,0 l/m 0 min 0 min 0,0 UV-I 0 W/m 15,4 km/h (3 Bft)
08.05.2014 23:08 13,1 C 11,7 C 97 % 1005,6 hPa 0,0 l/m 0 min 0 min 0,0 UV-I 0 W/m 28,3 km/h (4 Bft)
08.05.2014 23:10 13,1 C 11,7 C 97 % 1005,8 hPa 0,2 l/m 0 min 0 min 0,0 UV-I 0 W/m 59,2 km/h (7 Bft)
08.05.2014 23:12 13,1 C 11,7 C 96 % 1005,8 hPa 0,0 l/m 0 min 0 min 0,0 UV-I 0 W/m 10,3 km/h (2 Bft)
08.05.2014 23:14 13,1 C 11,7 C 96 % 1005,8 hPa 0,0 l/m 0 min 0 min 0,0 UV-I 0 W/m 20,6 km/h (4 Bft)
08.05.2014 23:16 13,2 C 11,7 C 96 % 1005,8 hPa 0,0 l/m 0 min 0 min 0,0 UV-I 0 W/m 23,2 km/h (4 Bft)
08.05.2014 23:18 13,2 C 11,7 C 96 % 1005,7 hPa 0,0 l/m 0 min 0 min 0,0 UV-I 0 W/m 25,7 km/h (4 Bft)
08.05.2014 23:20 13,2 C 11,7 C 96 % 1005,9 hPa 0,0 l/m 0 min 0 min 0,0 UV-I 0 W/m 23,2 km/h (4 Bft)
08.05.2014 23:22 13,2 C 11,7 C 96 % 1005,7 hPa 0,0 l/m 0 min 0 min 0,0 UV-I 0 W/m 28,3 km/h (4 Bft)
08.05.2014 23:24 13,2 C 11,7 C 96 % 1005,9 hPa 0,0 l/m 0 min 0 min 0,0 UV-I 0 W/m 18,0 km/h (3 Bft)
08.05.2014 23:26 13,2 C 11,7 C 96 % 1005,8 hPa 0,0 l/m 0 min 0 min 0,0 UV-I 0 W/m 23,2 km/h (4 Bft)
08.05.2014 23:28 13,3 C 11,7 C 96 % 1005,8 hPa 0,0 l/m 0 min 0 min 0,0 UV-I 0 W/m 18,0 km/h (3 Bft)
08.05.2014 23:30 13,3 C 11,7 C 96 % 1005,9 hPa 0,0 l/m 0 min 0 min 0,0 UV-I 0 W/m 12,9 km/h (3 Bft)
08.05.2014 23:32 13,3 C 11,7 C 96 % 1005,9 hPa 0,0 l/m 0 min 0 min 0,0 UV-I 0 W/m 12,9 km/h (3 Bft)
08.05.2014 23:34 13,3 C 11,7 C 96 % 1006,0 hPa 0,0 l/m 0 min 0 min 0,0 UV-I 0 W/m 20,6 km/h (4 Bft)
08.05.2014 23:36 13,3 C 11,7 C 96 % 1005,8 hPa 0,0 l/m 0 min 0 min 0,0 UV-I 0 W/m 23,2 km/h (4 Bft)
08.05.2014 23:38 13,3 C 11,7 C 96 % 1005,9 hPa 0,0 l/m 0 min 0 min 0,0 UV-I 0 W/m 25,7 km/h (4 Bft)
08.05.2014 23:40 13,3 C 11,7 C 96 % 1005,8 hPa 0,0 l/m 0 min 0 min 0,0 UV-I 0 W/m 33,5 km/h (5 Bft)
08.05.2014 23:42 13,3 C 11,7 C 96 % 1005,9 hPa 0,0 l/m 0 min 0 min 0,0 UV-I 0 W/m 20,6 km/h (4 Bft)
08.05.2014 23:44 13,4 C 11,7 C 95 % 1005,9 hPa 0,0 l/m 0 min 0 min 0,0 UV-I 0 W/m 25,7 km/h (4 Bft)
08.05.2014 23:46 13,4 C 11,7 C 95 % 1005,9 hPa 0,0 l/m 0 min 0 min 0,0 UV-I 0 W/m 36,0 km/h (5 Bft)
08.05.2014 23:48 13,4 C 11,7 C 96 % 1006,1 hPa 0,0 l/m 0 min 0 min 0,0 UV-I 0 W/m 20,6 km/h (4 Bft)
08.05.2014 23:50 13,4 C 11,7 C 96 % 1006,0 hPa 0,0 l/m 0 min 0 min 0,0 UV-I 0 W/m 23,2 km/h (4 Bft)
08.05.2014 23:52 13,4 C 11,7 C 96 % 1006,1 hPa 0,0 l/m 0 min 0 min 0,0 UV-I 0 W/m 25,7 km/h (4 Bft)
08.05.2014 23:54 13,4 C 11,7 C 96 % 1006,1 hPa 0,0 l/m 0 min 0 min 0,0 UV-I 0 W/m 18,0 km/h (3 Bft)
08.05.2014 23:56 13,4 C 11,7 C 95 % 1006,1 hPa 0,0 l/m 0 min 0 min 0,0 UV-I 0 W/m 15,4 km/h (3 Bft)
08.05.2014 23:58 13,4 C 11,7 C 95 % 1006,1 hPa 0,0 l/m 0 min 0 min 0,0 UV-I 0 W/m 12,9 km/h (3 Bft)
_ Min-Zeit 01:00 00:54 12:10 22:46 - - - - - 00:06
Minimum _ 10,6 C 8,9 C 73 % 1005,6 hPa - - - - - 0,0 km/h (0 Bft)
_ Max-Zeit 12:30 12:28 22:12 10:46 19:54 09:44 14:34 12:16 12:22 23:10
Maximum _ 14,0 C 15,0 C 98 % 1013,0 hPa 0,4 l/m 2 min 2 min 2,3 UV-I 490 W/m 59,2 km/h
S (7 Bft)
Durchschnitt _ 12,0 C 10,9 C 85 % 1010,9 hPa #7,4 l/m #16 min. #4:30 h 1,0 UV-I 137 W/m 13,4 km/h (3 Bft)
© 2014 W. Hausmann